Wetterdaten: aktuell Mittwoch, 06.07.2022 09:58
Datum Zeit Temp. Aussen Temp. o. S. Temp +5cm Feuchte Auss Luftdruck Regen Sonnenschein Regendauer Solar Windben Empfang
06.07.2022 09:58 17,0 C 20,0 C 15,6 C 75 % 1026,3 hPa 0,0 l/m 2 min 0 min 433 W/m 9,7 km/h (2 Bft) 97,87 %
06.07.2022 09:56 16,8 C 20,0 C 15,6 C 75 % 1026,4 hPa 0,0 l/m 2 min 0 min 556 W/m 12,9 km/h (3 Bft) 97,87 %
06.07.2022 09:54 16,7 C 19,4 C 15,0 C 75 % 1026,4 hPa 0,0 l/m 2 min 0 min 464 W/m 9,7 km/h (2 Bft) 100,00 %
06.07.2022 09:52 16,6 C 18,9 C 14,4 C 76 % 1026,4 hPa 0,0 l/m 2 min 0 min 420 W/m 16,1 km/h (3 Bft) 97,83 %
06.07.2022 09:50 16,5 C 18,9 C 13,9 C 75 % 1026,4 hPa 0,0 l/m 2 min 0 min 371 W/m 12,9 km/h (3 Bft) 95,74 %
06.07.2022 09:48 16,4 C 18,3 C 13,9 C 75 % 1026,4 hPa 0,0 l/m 2 min 0 min 325 W/m 9,7 km/h (2 Bft) 97,87 %
06.07.2022 09:46 16,3 C 18,3 C 13,9 C 75 % 1026,4 hPa 0,0 l/m 2 min 0 min 324 W/m 19,3 km/h (3 Bft) 97,87 %
06.07.2022 09:44 16,3 C 18,3 C 13,9 C 76 % 1026,4 hPa 0,0 l/m 0 min 0 min 284 W/m 22,5 km/h (4 Bft) 97,87 %
06.07.2022 09:42 16,2 C 19,4 C 14,4 C 76 % 1026,4 hPa 0,0 l/m 2 min 0 min 495 W/m 16,1 km/h (3 Bft) 95,74 %
06.07.2022 09:40 16,1 C 18,9 C 14,4 C 76 % 1026,5 hPa 0,0 l/m 2 min 0 min 727 W/m 19,3 km/h (3 Bft) 97,83 %
06.07.2022 09:38 16,1 C 17,8 C 13,3 C 76 % 1026,4 hPa 0,0 l/m 2 min 0 min 297 W/m 12,9 km/h (3 Bft) 97,87 %
06.07.2022 09:36 16,0 C 16,7 C 12,8 C 76 % 1026,3 hPa 0,0 l/m 0 min 0 min 250 W/m 22,5 km/h (4 Bft) 97,87 %
06.07.2022 09:34 16,0 C 17,2 C 12,8 C 76 % 1026,5 hPa 0,0 l/m 0 min 0 min 225 W/m 19,3 km/h (3 Bft) 97,87 %
06.07.2022 09:32 15,9 C 17,2 C 12,8 C 77 % 1026,4 hPa 0,0 l/m 2 min 0 min 310 W/m 16,1 km/h (3 Bft) 95,74 %
06.07.2022 09:30 15,9 C 16,7 C 12,8 C 77 % 1026,3 hPa 0,0 l/m 0 min 0 min 235 W/m 16,1 km/h (3 Bft) 95,74 %
06.07.2022 09:28 15,9 C 17,2 C 12,8 C 78 % 1026,4 hPa 0,0 l/m 2 min 0 min 280 W/m 16,1 km/h (3 Bft) 95,65 %
06.07.2022 09:26 15,8 C 16,7 C 12,8 C 77 % 1026,3 hPa 0,0 l/m 0 min 0 min 207 W/m 22,5 km/h (4 Bft) 93,62 %
06.07.2022 09:24 15,8 C 17,2 C 12,8 C 77 % 1026,3 hPa 0,0 l/m 0 min 0 min 256 W/m 16,1 km/h (3 Bft) 95,74 %
06.07.2022 09:22 15,8 C 16,7 C 12,8 C 77 % 1026,3 hPa 0,0 l/m 0 min 0 min 252 W/m 12,9 km/h (3 Bft) 95,74 %
06.07.2022 09:20 15,7 C 16,7 C 12,8 C 78 % 1026,3 hPa 0,0 l/m 0 min 0 min 236 W/m 19,3 km/h (3 Bft) 95,74 %
06.07.2022 09:18 15,7 C 16,7 C 12,8 C 79 % 1026,4 hPa 0,0 l/m 0 min 0 min 227 W/m 12,9 km/h (3 Bft) 93,62 %
06.07.2022 09:16 15,7 C 16,7 C 12,8 C 79 % 1026,4 hPa 0,0 l/m 0 min 0 min 210 W/m 9,7 km/h (2 Bft) 95,65 %
06.07.2022 09:14 15,7 C 16,7 C 12,8 C 79 % 1026,4 hPa 0,0 l/m 0 min 0 min 212 W/m 9,7 km/h (2 Bft) 95,74 %
06.07.2022 09:12 15,6 C 16,7 C 12,8 C 80 % 1026,4 hPa 0,0 l/m 0 min 0 min 223 W/m 16,1 km/h (3 Bft) 93,62 %
06.07.2022 09:10 15,6 C 16,7 C 12,8 C 80 % 1026,4 hPa 0,0 l/m 2 min 0 min 273 W/m 19,3 km/h (3 Bft) 95,74 %
06.07.2022 09:08 15,5 C 16,7 C 12,8 C 80 % 1026,4 hPa 0,0 l/m 2 min 0 min 271 W/m 12,9 km/h (3 Bft) 89,36 %
06.07.2022 09:06 15,4 C 16,1 C 12,2 C 80 % 1026,4 hPa 0,0 l/m 0 min 0 min 246 W/m 6,4 km/h (2 Bft) 93,62 %
06.07.2022 09:04 15,3 C 16,1 C 12,2 C 80 % 1026,4 hPa 0,0 l/m 2 min 0 min 265 W/m 12,9 km/h (3 Bft) 93,48 %
06.07.2022 09:02 15,3 C 16,1 C 12,2 C 81 % 1026,4 hPa 0,0 l/m 2 min 0 min 276 W/m 12,9 km/h (3 Bft) 93,62 %
06.07.2022 09:00 15,2 C 16,1 C 12,2 C 81 % 1026,3 hPa 0,0 l/m 2 min 0 min 257 W/m 12,9 km/h (3 Bft) 93,62 %
06.07.2022 08:58 15,2 C 16,1 C 12,2 C 81 % 1026,3 hPa 0,0 l/m 2 min 0 min 275 W/m 16,1 km/h (3 Bft) 91,49 %
06.07.2022 08:56 15,1 C 16,1 C 12,2 C 81 % 1026,3 hPa 0,0 l/m 0 min 0 min 230 W/m 6,4 km/h (2 Bft) 91,49 %
06.07.2022 08:54 15,1 C 15,6 C 11,7 C 81 % 1026,3 hPa 0,0 l/m 0 min 0 min 219 W/m 6,4 km/h (2 Bft) 93,62 %
06.07.2022 08:52 15,1 C 15,6 C 11,7 C 81 % 1026,3 hPa 0,0 l/m 0 min 0 min 197 W/m 9,7 km/h (2 Bft) 93,48 %
06.07.2022 08:50 15,0 C 15,6 C 11,7 C 82 % 1026,2 hPa 0,0 l/m 0 min 0 min 196 W/m 12,9 km/h (3 Bft) 93,62 %
06.07.2022 08:48 14,9 C 15,6 C 11,7 C 82 % 1026,2 hPa 0,0 l/m 0 min 0 min 213 W/m 6,4 km/h (2 Bft) 97,87 %
06.07.2022 08:46 14,8 C 15,0 C 11,7 C 82 % 1026,3 hPa 0,0 l/m 0 min 0 min 219 W/m 6,4 km/h (2 Bft) 97,87 %
06.07.2022 08:44 14,8 C 15,0 C 11,7 C 82 % 1026,2 hPa 0,0 l/m 0 min 0 min 188 W/m 12,9 km/h (3 Bft) 95,74 %
06.07.2022 08:42 14,7 C 15,0 C 11,7 C 82 % 1026,2 hPa 0,0 l/m 0 min 0 min 192 W/m 9,7 km/h (2 Bft) 97,87 %
06.07.2022 08:40 14,7 C 15,0 C 11,7 C 82 % 1026,2 hPa 0,0 l/m 0 min 0 min 199 W/m 9,7 km/h (2 Bft) 97,83 %
06.07.2022 08:38 14,7 C 15,0 C 11,1 C 82 % 1026,2 hPa 0,0 l/m 0 min 0 min 203 W/m 6,4 km/h (2 Bft) 97,87 %
06.07.2022 08:36 14,6 C 15,0 C 11,1 C 83 % 1026,2 hPa 0,0 l/m 0 min 0 min 197 W/m 9,7 km/h (2 Bft) 97,87 %
06.07.2022 08:34 14,6 C 14,4 C 11,1 C 83 % 1026,2 hPa 0,0 l/m 0 min 0 min 189 W/m 9,7 km/h (2 Bft) 97,87 %
06.07.2022 08:32 14,6 C 14,4 C 11,1 C 83 % 1026,1 hPa 0,0 l/m 0 min 0 min 177 W/m 6,4 km/h (2 Bft) 100,00 %
06.07.2022 08:30 14,4 C 14,4 C 11,1 C 83 % 1026,1 hPa 0,0 l/m 0 min 0 min 176 W/m 6,4 km/h (2 Bft) 100,00 %
06.07.2022 08:28 14,3 C 14,4 C 11,1 C 83 % 1026,2 hPa 0,0 l/m 0 min 0 min 177 W/m 6,4 km/h (2 Bft) 100,00 %
06.07.2022 08:26 14,3 C 14,4 C 11,1 C 84 % 1026,2 hPa 0,0 l/m 0 min 0 min 180 W/m 6,4 km/h (2 Bft) 100,00 %
06.07.2022 08:24 14,3 C 14,4 C 11,1 C 84 % 1026,2 hPa 0,0 l/m 0 min 0 min 171 W/m 6,4 km/h (2 Bft) 95,74 %
06.07.2022 08:22 14,3 C 14,4 C 11,1 C 84 % 1026,2 hPa 0,0 l/m 0 min 0 min 174 W/m 9,7 km/h (2 Bft) 100,00 %
06.07.2022 08:20 14,3 C 14,4 C 11,1 C 84 % 1026,2 hPa 0,0 l/m 0 min 0 min 191 W/m 9,7 km/h (2 Bft) 100,00 %
06.07.2022 08:18 14,2 C 14,4 C 10,6 C 85 % 1026,2 hPa 0,0 l/m 2 min 0 min 196 W/m 12,9 km/h (3 Bft) 100,00 %
06.07.2022 08:16 14,1 C 14,4 C 10,6 C 85 % 1026,2 hPa 0,0 l/m 2 min 0 min 191 W/m 6,4 km/h (2 Bft) 100,00 %
06.07.2022 08:14 14,0 C 14,4 C 10,6 C 85 % 1026,2 hPa 0,0 l/m 2 min 0 min 189 W/m 9,7 km/h (2 Bft) 100,00 %
06.07.2022 08:12 13,9 C 14,4 C 10,6 C 85 % 1026,1 hPa 0,0 l/m 2 min 0 min 201 W/m 6,4 km/h (2 Bft) 97,87 %
06.07.2022 08:10 13,8 C 14,4 C 10,6 C 86 % 1026,1 hPa 0,0 l/m 2 min 0 min 250 W/m 9,7 km/h (2 Bft) 100,00 %
06.07.2022 08:08 13,7 C 13,9 C 10,6 C 86 % 1026,2 hPa 0,0 l/m 0 min 0 min 173 W/m 6,4 km/h (2 Bft) 100,00 %
06.07.2022 08:06 13,7 C 13,9 C 10,0 C 86 % 1026,1 hPa 0,0 l/m 0 min 0 min 165 W/m 9,7 km/h (2 Bft) 100,00 %
06.07.2022 08:04 13,6 C 13,9 C 10,0 C 86 % 1026,1 hPa 0,0 l/m 2 min 0 min 245 W/m 6,4 km/h (2 Bft) 100,00 %
06.07.2022 08:02 13,5 C 13,3 C 10,0 C 86 % 1026,1 hPa 0,0 l/m 2 min 0 min 203 W/m 9,7 km/h (2 Bft) 100,00 %
06.07.2022 08:00 13,4 C 13,3 C 10,0 C 86 % 1026,1 hPa 0,0 l/m 0 min 0 min 136 W/m 9,7 km/h (2 Bft) 100,00 %
06.07.2022 07:58 13,4 C 13,3 C 10,0 C 86 % 1026,0 hPa 0,0 l/m 0 min 0 min 119 W/m 6,4 km/h (2 Bft) 100,00 %
06.07.2022 07:56 13,3 C 13,3 C 10,0 C 86 % 1026,0 hPa 0,0 l/m 2 min 0 min 174 W/m 9,7 km/h (2 Bft) 100,00 %
06.07.2022 07:54 13,3 C 13,3 C 10,0 C 86 % 1026,0 hPa 0,0 l/m 2 min 0 min 273 W/m 9,7 km/h (2 Bft) 100,00 %
06.07.2022 07:52 13,2 C 13,3 C 9,4 C 86 % 1025,9 hPa 0,0 l/m 2 min 0 min 170 W/m 3,2 km/h (1 Bft) 95,74 %
06.07.2022 07:50 13,2 C 13,3 C 9,4 C 86 % 1025,9 hPa 0,0 l/m 0 min 0 min 115 W/m 6,4 km/h (2 Bft) 100,00 %
06.07.2022 07:48 13,1 C 13,3 C 9,4 C 86 % 1025,9 hPa 0,0 l/m 0 min 0 min 99 W/m 6,4 km/h (2 Bft) 97,87 %
06.07.2022 07:46 13,1 C 13,3 C 9,4 C 86 % 1025,9 hPa 0,0 l/m 0 min 0 min 104 W/m 9,7 km/h (2 Bft) 97,87 %
06.07.2022 07:44 13,0 C 12,8 C 9,4 C 86 % 1026,0 hPa 0,0 l/m 0 min 0 min 109 W/m 9,7 km/h (2 Bft) 100,00 %
06.07.2022 07:42 12,9 C 12,8 C 9,4 C 86 % 1026,0 hPa 0,0 l/m 0 min 0 min 113 W/m 6,4 km/h (2 Bft) 100,00 %
06.07.2022 07:40 12,9 C 12,8 C 9,4 C 86 % 1026,0 hPa 0,0 l/m 0 min 0 min 107 W/m 6,4 km/h (2 Bft) 100,00 %
06.07.2022 07:38 12,8 C 12,8 C 9,4 C 86 % 1026,0 hPa 0,0 l/m 0 min 0 min 105 W/m 6,4 km/h (2 Bft) 100,00 %
06.07.2022 07:36 12,8 C 12,8 C 9,4 C 86 % 1026,0 hPa 0,0 l/m 0 min 0 min 97 W/m 9,7 km/h (2 Bft) 97,87 %
06.07.2022 07:34 12,8 C 12,8 C 9,4 C 87 % 1025,9 hPa 0,0 l/m 0 min 0 min 93 W/m 6,4 km/h (2 Bft) 100,00 %
06.07.2022 07:32 12,7 C 12,8 C 9,4 C 87 % 1025,9 hPa 0,0 l/m 0 min 0 min 90 W/m 6,4 km/h (2 Bft) 100,00 %
06.07.2022 07:30 12,7 C 12,8 C 9,4 C 87 % 1025,9 hPa 0,0 l/m 0 min 0 min 83 W/m 6,4 km/h (2 Bft) 100,00 %
06.07.2022 07:28 12,7 C 12,2 C 9,4 C 87 % 1025,9 hPa 0,0 l/m 0 min 0 min 82 W/m 6,4 km/h (2 Bft) 100,00 %
06.07.2022 07:26 12,6 C 12,2 C 9,4 C 87 % 1025,9 hPa 0,0 l/m 0 min 0 min 80 W/m 6,4 km/h (2 Bft) 97,87 %
06.07.2022 07:24 12,6 C 12,2 C 8,9 C 87 % 1025,8 hPa 0,0 l/m 0 min 0 min 81 W/m 6,4 km/h (2 Bft) 100,00 %
06.07.2022 07:22 12,6 C 12,2 C 8,9 C 87 % 1025,9 hPa 0,0 l/m 0 min 0 min 79 W/m 3,2 km/h (1 Bft) 97,87 %
06.07.2022 07:20 12,6 C 12,2 C 8,9 C 87 % 1025,8 hPa 0,0 l/m 0 min 0 min 67 W/m 6,4 km/h (2 Bft) 100,00 %
06.07.2022 07:18 12,5 C 12,2 C 8,9 C 87 % 1025,8 hPa 0,0 l/m 0 min 0 min 61 W/m 3,2 km/h (1 Bft) 97,83 %
06.07.2022 07:16 12,5 C 12,2 C 8,9 C 87 % 1025,8 hPa 0,0 l/m 0 min 0 min 63 W/m 12,9 km/h (3 Bft) 100,00 %
06.07.2022 07:14 12,5 C 12,2 C 8,9 C 87 % 1025,8 hPa 0,0 l/m 0 min 0 min 69 W/m 12,9 km/h (3 Bft) 100,00 %
06.07.2022 07:12 12,5 C 12,2 C 8,9 C 87 % 1025,8 hPa 0,0 l/m 0 min 0 min 70 W/m 9,7 km/h (2 Bft) 97,87 %
06.07.2022 07:10 12,4 C 12,2 C 8,9 C 87 % 1025,8 hPa 0,0 l/m 0 min 0 min 69 W/m 6,4 km/h (2 Bft) 100,00 %
06.07.2022 07:08 12,4 C 12,2 C 8,9 C 87 % 1025,8 hPa 0,0 l/m 0 min 0 min 64 W/m 3,2 km/h (1 Bft) 95,65 %
06.07.2022 07:06 12,4 C 12,2 C 8,9 C 87 % 1025,7 hPa 0,0 l/m 0 min 0 min 63 W/m 6,4 km/h (2 Bft) 95,74 %
06.07.2022 07:04 12,4 C 12,2 C 8,9 C 87 % 1025,8 hPa 0,0 l/m 0 min 0 min 66 W/m 9,7 km/h (2 Bft) 97,87 %
06.07.2022 07:02 12,4 C 12,2 C 8,9 C 87 % 1025,8 hPa 0,0 l/m 0 min 0 min 67 W/m 6,4 km/h (2 Bft) 97,87 %
06.07.2022 07:00 12,4 C 12,2 C 8,9 C 88 % 1025,8 hPa 0,0 l/m 0 min 0 min 65 W/m 9,7 km/h (2 Bft) 93,62 %
06.07.2022 06:58 12,4 C 12,2 C 8,9 C 88 % 1025,7 hPa 0,0 l/m 0 min 0 min 62 W/m 12,9 km/h (3 Bft) 97,87 %
06.07.2022 06:56 12,3 C 12,2 C 8,9 C 88 % 1025,7 hPa 0,0 l/m 0 min 0 min 60 W/m 12,9 km/h (3 Bft) 97,83 %
06.07.2022 06:54 12,3 C 12,2 C 8,9 C 88 % 1025,7 hPa 0,0 l/m 0 min 0 min 62 W/m 9,7 km/h (2 Bft) 97,87 %
06.07.2022 06:52 12,3 C 12,2 C 8,9 C 88 % 1025,7 hPa 0,0 l/m 0 min 0 min 54 W/m 6,4 km/h (2 Bft) 95,74 %
06.07.2022 06:50 12,3 C 12,2 C 8,9 C 88 % 1025,7 hPa 0,0 l/m 0 min 0 min 52 W/m 6,4 km/h (2 Bft) 95,74 %
06.07.2022 06:48 12,2 C 12,2 C 8,9 C 88 % 1025,7 hPa 0,0 l/m 0 min 0 min 56 W/m 9,7 km/h (2 Bft) 93,62 %
06.07.2022 06:46 12,2 C 12,2 C 8,9 C 88 % 1025,7 hPa 0,0 l/m 0 min 0 min 56 W/m 9,7 km/h (2 Bft) 95,74 %
06.07.2022 06:44 12,2 C 12,2 C 8,9 C 88 % 1025,8 hPa 0,0 l/m 0 min 0 min 58 W/m 6,4 km/h (2 Bft) 95,65 %
06.07.2022 06:42 12,1 C 12,2 C 8,9 C 88 % 1025,8 hPa 0,0 l/m 0 min 0 min 54 W/m 3,2 km/h (1 Bft) 93,62 %
06.07.2022 06:40 12,1 C 11,7 C 8,9 C 88 % 1025,8 hPa 0,0 l/m 0 min 0 min 49 W/m 3,2 km/h (1 Bft) 95,74 %
06.07.2022 06:38 12,1 C 11,7 C 8,9 C 88 % 1025,8 hPa 0,0 l/m 0 min 0 min 47 W/m 3,2 km/h (1 Bft) 97,87 %
06.07.2022 06:36 12,0 C 11,7 C 8,3 C 88 % 1025,8 hPa 0,0 l/m 0 min 0 min 47 W/m 3,2 km/h (1 Bft) 95,74 %
06.07.2022 06:34 11,9 C 11,7 C 8,3 C 88 % 1025,8 hPa 0,0 l/m 0 min 0 min 45 W/m 3,2 km/h (1 Bft) 95,74 %
06.07.2022 06:32 11,9 C 11,7 C 8,3 C 88 % 1025,8 hPa 0,0 l/m 0 min 0 min 44 W/m 3,2 km/h (1 Bft) 91,30 %
06.07.2022 06:30 11,9 C 11,7 C 8,3 C 88 % 1025,8 hPa 0,0 l/m 0 min 0 min 42 W/m 3,2 km/h (1 Bft) 93,62 %
06.07.2022 06:28 11,9 C 11,7 C 8,3 C 88 % 1025,8 hPa 0,0 l/m 0 min 0 min 38 W/m 3,2 km/h (1 Bft) 95,74 %
06.07.2022 06:26 11,9 C 11,7 C 8,3 C 88 % 1025,8 hPa 0,0 l/m 0 min 0 min 33 W/m 3,2 km/h (1 Bft) 95,74 %
06.07.2022 06:24 11,9 C 11,7 C 8,3 C 88 % 1025,7 hPa 0,0 l/m 0 min 0 min 23 W/m 6,4 km/h (2 Bft) 95,74 %
06.07.2022 06:22 11,8 C 11,7 C 8,3 C 88 % 1025,7 hPa 0,0 l/m 0 min 0 min 21 W/m 3,2 km/h (1 Bft) 93,62 %
06.07.2022 06:20 11,8 C 11,7 C 8,3 C 88 % 1025,8 hPa 0,0 l/m 0 min 0 min 23 W/m 3,2 km/h (1 Bft) 97,83 %
06.07.2022 06:18 11,8 C 11,1 C 8,3 C 88 % 1025,7 hPa 0,0 l/m 0 min 0 min 21 W/m 3,2 km/h (1 Bft) 93,62 %
06.07.2022 06:16 11,8 C 11,1 C 8,3 C 88 % 1025,7 hPa 0,0 l/m 0 min 0 min 16 W/m 6,4 km/h (2 Bft) 95,74 %
06.07.2022 06:14 11,7 C 11,1 C 8,3 C 88 % 1025,7 hPa 0,0 l/m 0 min 0 min 14 W/m 9,7 km/h (2 Bft) 93,62 %
06.07.2022 06:12 11,7 C 11,1 C 8,3 C 88 % 1025,7 hPa 0,0 l/m 0 min 0 min 15 W/m 3,2 km/h (1 Bft) 93,62 %
06.07.2022 06:10 11,7 C 11,7 C 8,3 C 88 % 1025,7 hPa 0,0 l/m 0 min 0 min 18 W/m 6,4 km/h (2 Bft) 93,62 %
06.07.2022 06:08 11,7 C 11,1 C 8,3 C 88 % 1025,7 hPa 0,0 l/m 0 min 0 min 19 W/m 0,0 km/h (0 Bft) 100,00 %
06.07.2022 06:07 11,7 C 11,1 C 8,3 C 88 % 1025,7 hPa 0,0 l/m 0 min 0 min 19 W/m 6,4 km/h (2 Bft) 94,52 %
06.07.2022 06:04 11,6 C 11,1 C 8,3 C 88 % 1025,8 hPa 0,0 l/m 0 min 0 min 16 W/m 3,2 km/h (1 Bft) 95,74 %
06.07.2022 06:02 11,6 C 11,1 C 8,3 C 88 % 1025,7 hPa 0,0 l/m 0 min 0 min 15 W/m 3,2 km/h (1 Bft) 93,62 %
06.07.2022 06:00 11,5 C 11,1 C 7,8 C 88 % 1025,7 hPa 0,0 l/m 0 min 0 min 14 W/m 3,2 km/h (1 Bft) 95,74 %
06.07.2022 05:58 11,5 C 11,1 C 7,8 C 88 % 1025,8 hPa 0,0 l/m 0 min 0 min 13 W/m 3,2 km/h (1 Bft) 93,48 %
06.07.2022 05:56 11,5 C 11,1 C 7,8 C 88 % 1025,7 hPa 0,0 l/m 0 min 0 min 12 W/m 0,0 km/h (0 Bft) 95,74 %
06.07.2022 05:54 11,5 C 11,1 C 7,8 C 88 % 1025,8 hPa 0,0 l/m 0 min 0 min 12 W/m 3,2 km/h (1 Bft) 95,74 %
06.07.2022 05:52 11,5 C 11,1 C 7,8 C 88 % 1025,7 hPa 0,0 l/m 0 min 0 min 11 W/m 3,2 km/h (1 Bft) 100,00 %
06.07.2022 05:50 11,4 C 11,1 C 7,8 C 88 % 1025,7 hPa 0,0 l/m 0 min 0 min 11 W/m 3,2 km/h (1 Bft) 95,74 %
06.07.2022 05:48 11,4 C 10,6 C 7,8 C 88 % 1025,7 hPa 0,0 l/m 0 min 0 min 9 W/m 3,2 km/h (1 Bft) 95,74 %
06.07.2022 05:46 11,4 C 10,6 C 7,8 C 88 % 1025,8 hPa 0,0 l/m 0 min 0 min 9 W/m 0,0 km/h (0 Bft) 95,65 %
06.07.2022 05:44 11,4 C 10,6 C 7,8 C 88 % 1025,7 hPa 0,0 l/m 0 min 0 min 9 W/m 0,0 km/h (0 Bft) 100,00 %
06.07.2022 05:42 11,4 C 10,6 C 7,8 C 88 % 1025,8 hPa 0,0 l/m 0 min 0 min 8 W/m 0,0 km/h (0 Bft) 97,87 %
06.07.2022 05:40 11,4 C 10,6 C 7,8 C 88 % 1025,7 hPa 0,0 l/m 0 min 0 min 7 W/m 0,0 km/h (0 Bft) 97,87 %
06.07.2022 05:38 11,4 C 10,6 C 7,8 C 88 % 1025,7 hPa 0,0 l/m 0 min 0 min 7 W/m 0,0 km/h (0 Bft) 100,00 %
06.07.2022 05:36 11,4 C 10,6 C 7,8 C 88 % 1025,7 hPa 0,0 l/m 0 min 0 min 5 W/m 0,0 km/h (0 Bft) 97,87 %
06.07.2022 05:34 11,4 C 10,6 C 7,8 C 88 % 1025,7 hPa 0,0 l/m 0 min 0 min 5 W/m 0,0 km/h (0 Bft) 100,00 %
06.07.2022 05:32 11,4 C 10,6 C 7,8 C 88 % 1025,7 hPa 0,0 l/m 0 min 0 min 5 W/m 3,2 km/h (1 Bft) 100,00 %
06.07.2022 05:30 11,4 C 10,6 C 7,8 C 88 % 1025,7 hPa 0,0 l/m 0 min 0 min 1 W/m 0,0 km/h (0 Bft) 100,00 %
06.07.2022 05:28 11,4 C 10,6 C 7,8 C 87 % 1025,7 hPa 0,0 l/m 0 min 0 min 0 W/m 0,0 km/h (0 Bft) 97,87 %
06.07.2022 05:26 11,4 C 10,6 C 7,8 C 87 % 1025,7 hPa 0,0 l/m 0 min 0 min 0 W/m 0,0 km/h (0 Bft) 97,87 %
06.07.2022 05:24 11,4 C 10,6 C 7,8 C 87 % 1025,7 hPa 0,0 l/m 0 min 0 min 0 W/m 0,0 km/h (0 Bft) 97,87 %
06.07.2022 05:22 11,4 C 10,6 C 7,8 C 87 % 1025,7 hPa 0,0 l/m 0 min 0 min 0 W/m 0,0 km/h (0 Bft) 97,83 %
06.07.2022 05:20 11,5 C 10,6 C 7,8 C 87 % 1025,7 hPa 0,0 l/m 0 min 0 min 0 W/m 0,0 km/h (0 Bft) 95,74 %
06.07.2022 05:18 11,5 C 10,6 C 7,8 C 87 % 1025,7 hPa 0,0 l/m 0 min 0 min 0 W/m 0,0 km/h (0 Bft) 97,87 %
06.07.2022 05:16 11,5 C 10,6 C 7,8 C 87 % 1025,7 hPa 0,0 l/m 0 min 0 min 0 W/m 0,0 km/h (0 Bft) 97,87 %
06.07.2022 05:14 11,5 C 10,6 C 7,8 C 87 % 1025,7 hPa 0,0 l/m 0 min 0 min 0 W/m 3,2 km/h (1 Bft) 97,87 %
06.07.2022 05:12 11,6 C 10,6 C 7,8 C 87 % 1025,7 hPa 0,0 l/m 0 min 0 min 0 W/m 0,0 km/h (0 Bft) 97,83 %
06.07.2022 05:10 11,6 C 10,6 C 7,8 C 87 % 1025,7 hPa 0,0 l/m 0 min 0 min 0 W/m 0,0 km/h (0 Bft) 97,87 %
06.07.2022 05:08 11,6 C 10,6 C 7,8 C 87 % 1025,7 hPa 0,0 l/m 0 min 0 min 0 W/m 0,0 km/h (0 Bft) 97,87 %
06.07.2022 05:06 11,6 C 10,6 C 7,8 C 87 % 1025,6 hPa 0,0 l/m 0 min 0 min 0 W/m 0,0 km/h (0 Bft) 97,87 %
06.07.2022 05:04 11,6 C 10,6 C 7,8 C 87 % 1025,6 hPa 0,0 l/m 0 min 0 min 0 W/m 0,0 km/h (0 Bft) 100,00 %
06.07.2022 05:02 11,6 C 10,6 C 7,8 C 87 % 1025,6 hPa 0,0 l/m 0 min 0 min 0 W/m 0,0 km/h (0 Bft) 100,00 %
06.07.2022 05:00 11,6 C 10,6 C 7,8 C 87 % 1025,6 hPa 0,0 l/m 0 min 0 min 0 W/m 0,0 km/h (0 Bft) 100,00 %
06.07.2022 04:58 11,6 C 10,6 C 7,8 C 87 % 1025,5 hPa 0,0 l/m 0 min 0 min 0 W/m 0,0 km/h (0 Bft) 97,87 %
06.07.2022 04:56 11,6 C 10,6 C 7,8 C 87 % 1025,5 hPa 0,0 l/m 0 min 0 min 0 W/m 0,0 km/h (0 Bft) 97,87 %
06.07.2022 04:54 11,6 C 10,6 C 7,8 C 87 % 1025,5 hPa 0,0 l/m 0 min 0 min 0 W/m 0,0 km/h (0 Bft) 100,00 %
06.07.2022 04:52 11,6 C 10,6 C 7,8 C 87 % 1025,5 hPa 0,0 l/m 0 min 0 min 0 W/m 0,0 km/h (0 Bft) 97,87 %
06.07.2022 04:50 11,6 C 10,6 C 7,8 C 87 % 1025,4 hPa 0,0 l/m 0 min 0 min 0 W/m 0,0 km/h (0 Bft) 100,00 %
06.07.2022 04:48 11,7 C 10,6 C 7,8 C 87 % 1025,4 hPa 0,0 l/m 0 min 0 min 0 W/m 3,2 km/h (1 Bft) 100,00 %
06.07.2022 04:46 11,7 C 10,6 C 7,8 C 87 % 1025,4 hPa 0,0 l/m 0 min 0 min 0 W/m 0,0 km/h (0 Bft) 97,87 %
06.07.2022 04:44 11,7 C 10,6 C 7,8 C 87 % 1025,5 hPa 0,0 l/m 0 min 0 min 0 W/m 3,2 km/h (1 Bft) 100,00 %
06.07.2022 04:42 11,7 C 10,6 C 7,8 C 86 % 1025,5 hPa 0,0 l/m 0 min 0 min 0 W/m 0,0 km/h (0 Bft) 100,00 %
06.07.2022 04:40 11,7 C 10,6 C 7,8 C 86 % 1025,5 hPa 0,0 l/m 0 min 0 min 0 W/m 0,0 km/h (0 Bft) 100,00 %
06.07.2022 04:38 11,8 C 10,6 C 7,8 C 86 % 1025,5 hPa 0,0 l/m 0 min 0 min 0 W/m 0,0 km/h (0 Bft) 97,87 %
06.07.2022 04:36 11,8 C 10,6 C 7,8 C 86 % 1025,5 hPa 0,0 l/m 0 min 0 min 0 W/m 0,0 km/h (0 Bft) 100,00 %
06.07.2022 04:34 11,8 C 10,6 C 7,8 C 86 % 1025,5 hPa 0,0 l/m 0 min 0 min 0 W/m 0,0 km/h (0 Bft) 97,87 %
06.07.2022 04:32 11,8 C 10,6 C 7,8 C 86 % 1025,5 hPa 0,0 l/m 0 min 0 min 0 W/m 3,2 km/h (1 Bft) 100,00 %
06.07.2022 04:30 11,8 C 10,6 C 7,8 C 86 % 1025,5 hPa 0,0 l/m 0 min 0 min 0 W/m 0,0 km/h (0 Bft) 100,00 %
06.07.2022 04:28 11,8 C 10,6 C 7,8 C 86 % 1025,6 hPa 0,0 l/m 0 min 0 min 0 W/m 0,0 km/h (0 Bft) 100,00 %
06.07.2022 04:26 11,8 C 10,6 C 7,8 C 86 % 1025,5 hPa 0,0 l/m 0 min 0 min 0 W/m 0,0 km/h (0 Bft) 100,00 %
06.07.2022 04:24 11,8 C 10,6 C 7,8 C 85 % 1025,6 hPa 0,0 l/m 0 min 0 min 0 W/m 0,0 km/h (0 Bft) 100,00 %
06.07.2022 04:22 11,9 C 10,6 C 7,8 C 85 % 1025,5 hPa 0,0 l/m 0 min 0 min 0 W/m 0,0 km/h (0 Bft) 100,00 %
06.07.2022 04:20 11,9 C 11,1 C 7,8 C 85 % 1025,6 hPa 0,0 l/m 0 min 0 min 0 W/m 0,0 km/h (0 Bft) 100,00 %
06.07.2022 04:18 11,9 C 11,1 C 8,3 C 85 % 1025,5 hPa 0,0 l/m 0 min 0 min 0 W/m 0,0 km/h (0 Bft) 100,00 %
06.07.2022 04:16 11,9 C 11,1 C 8,3 C 85 % 1025,6 hPa 0,0 l/m 0 min 0 min 0 W/m 0,0 km/h (0 Bft) 97,87 %
06.07.2022 04:14 11,9 C 10,6 C 8,3 C 85 % 1025,6 hPa 0,0 l/m 0 min 0 min 0 W/m 3,2 km/h (1 Bft) 97,83 %
06.07.2022 04:12 11,9 C 10,6 C 8,3 C 85 % 1025,6 hPa 0,0 l/m 0 min 0 min 0 W/m 0,0 km/h (0 Bft) 97,87 %
06.07.2022 04:10 11,9 C 10,6 C 8,3 C 85 % 1025,6 hPa 0,0 l/m 0 min 0 min 0 W/m 0,0 km/h (0 Bft) 97,87 %
06.07.2022 04:08 12,0 C 10,6 C 8,3 C 85 % 1025,6 hPa 0,0 l/m 0 min 0 min 0 W/m 3,2 km/h (1 Bft) 97,87 %
06.07.2022 04:06 12,0 C 11,1 C 8,3 C 85 % 1025,5 hPa 0,0 l/m 0 min 0 min 0 W/m 3,2 km/h (1 Bft) 97,87 %
06.07.2022 04:04 12,0 C 11,1 C 8,3 C 85 % 1025,5 hPa 0,0 l/m 0 min 0 min 0 W/m 0,0 km/h (0 Bft) 97,87 %
06.07.2022 04:02 12,0 C 11,1 C 8,3 C 84 % 1025,5 hPa 0,0 l/m 0 min 0 min 0 W/m 0,0 km/h (0 Bft) 100,00 %
06.07.2022 04:00 12,1 C 11,1 C 8,3 C 84 % 1025,5 hPa 0,0 l/m 0 min 0 min 0 W/m 0,0 km/h (0 Bft) 54,55 %
06.07.2022 03:58 12,1 C 11,1 C 8,3 C 84 % 1025,6 hPa 0,0 l/m 0 min 0 min 0 W/m 0,0 km/h (0 Bft) 93,62 %
06.07.2022 03:56 12,1 C 11,1 C 8,3 C 84 % 1025,5 hPa 0,0 l/m 0 min 0 min 0 W/m 0,0 km/h (0 Bft) 93,62 %
06.07.2022 03:54 12,1 C 11,1 C 8,3 C 84 % 1025,5 hPa 0,0 l/m 0 min 0 min 0 W/m 0,0 km/h (0 Bft) 93,62 %
06.07.2022 03:52 12,1 C 11,1 C 8,3 C 84 % 1025,6 hPa 0,0 l/m 0 min 0 min 0 W/m 0,0 km/h (0 Bft) 95,74 %
06.07.2022 03:50 12,1 C 11,1 C 8,3 C 84 % 1025,6 hPa 0,0 l/m 0 min 0 min 0 W/m 0,0 km/h (0 Bft) 95,65 %
06.07.2022 03:48 12,1 C 11,1 C 8,3 C 84 % 1025,5 hPa 0,0 l/m 0 min 0 min 0 W/m 0,0 km/h (0 Bft) 93,62 %
06.07.2022 03:46 12,1 C 11,1 C 8,3 C 84 % 1025,5 hPa 0,0 l/m 0 min 0 min 0 W/m 0,0 km/h (0 Bft) 93,62 %
06.07.2022 03:44 12,1 C 11,1 C 8,3 C 84 % 1025,6 hPa 0,0 l/m 0 min 0 min 0 W/m 0,0 km/h (0 Bft) 95,74 %
06.07.2022 03:42 12,1 C 11,1 C 8,3 C 84 % 1025,6 hPa 0,0 l/m 0 min 0 min 0 W/m 0,0 km/h (0 Bft) 95,74 %
06.07.2022 03:40 12,2 C 11,1 C 8,3 C 84 % 1025,6 hPa 0,0 l/m 0 min 0 min 0 W/m 0,0 km/h (0 Bft) 95,74 %
06.07.2022 03:38 12,2 C 11,1 C 8,3 C 84 % 1025,6 hPa 0,0 l/m 0 min 0 min 0 W/m 0,0 km/h (0 Bft) 97,83 %
06.07.2022 03:36 12,2 C 11,1 C 8,3 C 84 % 1025,6 hPa 0,0 l/m 0 min 0 min 0 W/m 0,0 km/h (0 Bft) 97,87 %
06.07.2022 03:34 12,2 C 11,1 C 8,3 C 84 % 1025,6 hPa 0,0 l/m 0 min 0 min 0 W/m 0,0 km/h (0 Bft) 97,87 %
06.07.2022 03:32 12,2 C 11,1 C 8,3 C 84 % 1025,6 hPa 0,0 l/m 0 min 0 min 0 W/m 0,0 km/h (0 Bft) 100,00 %
06.07.2022 03:30 12,2 C 11,1 C 8,3 C 84 % 1025,6 hPa 0,0 l/m 0 min 0 min 0 W/m 3,2 km/h (1 Bft) 97,87 %
06.07.2022 03:28 12,2 C 11,1 C 8,3 C 84 % 1025,6 hPa 0,0 l/m 0 min 0 min 0 W/m 3,2 km/h (1 Bft) 100,00 %
06.07.2022 03:26 12,3 C 11,1 C 8,3 C 83 % 1025,6 hPa 0,0 l/m 0 min 0 min 0 W/m 0,0 km/h (0 Bft) 100,00 %
06.07.2022 03:24 12,3 C 11,1 C 8,3 C 83 % 1025,7 hPa 0,0 l/m 0 min 0 min 0 W/m 6,4 km/h (2 Bft) 97,87 %
06.07.2022 03:22 12,3 C 11,1 C 8,3 C 83 % 1025,6 hPa 0,0 l/m 0 min 0 min 0 W/m 3,2 km/h (1 Bft) 100,00 %
06.07.2022 03:20 12,3 C 11,7 C 8,3 C 83 % 1025,6 hPa 0,0 l/m 0 min 0 min 0 W/m 3,2 km/h (1 Bft) 100,00 %
06.07.2022 03:18 12,3 C 11,7 C 8,3 C 83 % 1025,6 hPa 0,0 l/m 0 min 0 min 0 W/m 3,2 km/h (1 Bft) 100,00 %
06.07.2022 03:16 12,3 C 11,7 C 8,3 C 83 % 1025,6 hPa 0,0 l/m 0 min 0 min 0 W/m 3,2 km/h (1 Bft) 100,00 %
06.07.2022 03:14 12,4 C 11,7 C 8,3 C 83 % 1025,7 hPa 0,0 l/m 0 min 0 min 0 W/m 3,2 km/h (1 Bft) 100,00 %
06.07.2022 03:12 12,4 C 11,7 C 8,3 C 83 % 1025,7 hPa 0,0 l/m 0 min 0 min 0 W/m 3,2 km/h (1 Bft) 97,87 %
06.07.2022 03:10 12,4 C 11,7 C 8,3 C 83 % 1025,7 hPa 0,0 l/m 0 min 0 min 0 W/m 3,2 km/h (1 Bft) 98,21 %
06.07.2022 03:08 12,4 C 11,7 C 8,3 C 83 % 1025,6 hPa 0,0 l/m 0 min 0 min 0 W/m 3,2 km/h (1 Bft) 100,00 %
06.07.2022 03:06 12,4 C 11,7 C 8,3 C 83 % 1025,7 hPa 0,0 l/m 0 min 0 min 0 W/m 6,4 km/h (2 Bft) 97,87 %
06.07.2022 03:04 12,5 C 11,7 C 8,3 C 83 % 1025,7 hPa 0,0 l/m 0 min 0 min 0 W/m 3,2 km/h (1 Bft) 100,00 %
06.07.2022 03:02 12,6 C 11,7 C 8,3 C 82 % 1025,7 hPa 0,0 l/m 0 min 0 min 0 W/m 3,2 km/h (1 Bft) 100,00 %
06.07.2022 03:00 12,6 C 11,7 C 8,3 C 82 % 1025,7 hPa 0,0 l/m 0 min 0 min 0 W/m 3,2 km/h (1 Bft) 97,87 %
06.07.2022 02:58 12,6 C 11,7 C 8,3 C 82 % 1025,7 hPa 0,0 l/m 0 min 0 min 0 W/m 6,4 km/h (2 Bft) 97,87 %
06.07.2022 02:56 12,6 C 11,7 C 8,3 C 82 % 1025,7 hPa 0,0 l/m 0 min 0 min 0 W/m 3,2 km/h (1 Bft) 100,00 %
06.07.2022 02:54 12,7 C 11,7 C 8,3 C 82 % 1025,6 hPa 0,0 l/m 0 min 0 min 0 W/m 6,4 km/h (2 Bft) 100,00 %
06.07.2022 02:52 12,7 C 11,7 C 8,3 C 82 % 1025,6 hPa 0,0 l/m 0 min 0 min 0 W/m 3,2 km/h (1 Bft) 100,00 %
06.07.2022 02:50 12,8 C 11,7 C 8,9 C 82 % 1025,6 hPa 0,0 l/m 0 min 0 min 0 W/m 3,2 km/h (1 Bft) 100,00 %
06.07.2022 02:48 12,8 C 11,7 C 8,9 C 82 % 1025,5 hPa 0,0 l/m 0 min 0 min 0 W/m 3,2 km/h (1 Bft) 97,87 %
06.07.2022 02:46 12,8 C 11,7 C 8,9 C 82 % 1025,5 hPa 0,0 l/m 0 min 0 min 0 W/m 0,0 km/h (0 Bft) 97,87 %
06.07.2022 02:44 12,8 C 11,7 C 8,9 C 82 % 1025,5 hPa 0,0 l/m 0 min 0 min 0 W/m 3,2 km/h (1 Bft) 97,87 %
06.07.2022 02:42 12,8 C 11,7 C 8,9 C 82 % 1025,5 hPa 0,0 l/m 0 min 0 min 0 W/m 3,2 km/h (1 Bft) 97,87 %
06.07.2022 02:40 12,9 C 11,7 C 8,9 C 82 % 1025,5 hPa 0,0 l/m 0 min 0 min 0 W/m 3,2 km/h (1 Bft) 97,87 %
06.07.2022 02:38 12,9 C 11,7 C 8,9 C 82 % 1025,6 hPa 0,0 l/m 0 min 0 min 0 W/m 3,2 km/h (1 Bft) 97,83 %
06.07.2022 02:36 12,9 C 11,7 C 8,9 C 82 % 1025,6 hPa 0,0 l/m 0 min 0 min 0 W/m 0,0 km/h (0 Bft) 97,87 %
06.07.2022 02:34 12,9 C 11,7 C 8,9 C 82 % 1025,6 hPa 0,0 l/m 0 min 0 min 0 W/m 0,0 km/h (0 Bft) 97,87 %
06.07.2022 02:32 13,0 C 12,2 C 8,9 C 82 % 1025,6 hPa 0,0 l/m 0 min 0 min 0 W/m 3,2 km/h (1 Bft) 97,87 %
06.07.2022 02:30 13,0 C 12,2 C 8,9 C 81 % 1025,6 hPa 0,0 l/m 0 min 0 min 0 W/m 0,0 km/h (0 Bft) 97,87 %
06.07.2022 02:28 13,0 C 12,2 C 8,9 C 81 % 1025,6 hPa 0,0 l/m 0 min 0 min 0 W/m 3,2 km/h (1 Bft) 95,74 %
06.07.2022 02:26 13,1 C 11,7 C 8,9 C 81 % 1025,5 hPa 0,0 l/m 0 min 0 min 0 W/m 3,2 km/h (1 Bft) 97,83 %
06.07.2022 02:24 13,1 C 11,7 C 8,9 C 81 % 1025,5 hPa 0,0 l/m 0 min 0 min 0 W/m 3,2 km/h (1 Bft) 93,62 %
06.07.2022 02:22 13,1 C 12,2 C 8,9 C 81 % 1025,6 hPa 0,0 l/m 0 min 0 min 0 W/m 3,2 km/h (1 Bft) 95,74 %
06.07.2022 02:20 13,1 C 12,2 C 8,9 C 81 % 1025,6 hPa 0,0 l/m 0 min 0 min 0 W/m 3,2 km/h (1 Bft) 93,62 %
06.07.2022 02:18 13,1 C 12,2 C 8,9 C 81 % 1025,6 hPa 0,0 l/m 0 min 0 min 0 W/m 3,2 km/h (1 Bft) 95,74 %
06.07.2022 02:16 13,2 C 12,2 C 8,9 C 81 % 1025,6 hPa 0,0 l/m 0 min 0 min 0 W/m 6,4 km/h (2 Bft) 93,48 %
06.07.2022 02:14 13,2 C 12,2 C 8,9 C 81 % 1025,6 hPa 0,0 l/m 0 min 0 min 0 W/m 3,2 km/h (1 Bft) 95,74 %
06.07.2022 02:12 13,2 C 12,2 C 8,9 C 81 % 1025,6 hPa 0,0 l/m 0 min 0 min 0 W/m 3,2 km/h (1 Bft) 95,74 %
06.07.2022 02:10 13,2 C 12,2 C 8,9 C 80 % 1025,7 hPa 0,0 l/m 0 min 0 min 0 W/m 0,0 km/h (0 Bft) 91,49 %
06.07.2022 02:08 13,2 C 12,2 C 8,9 C 80 % 1025,7 hPa 0,0 l/m 0 min 0 min 0 W/m 3,2 km/h (1 Bft) 95,74 %
06.07.2022 02:06 13,3 C 12,2 C 8,9 C 80 % 1025,7 hPa 0,0 l/m 0 min 0 min 0 W/m 6,4 km/h (2 Bft) 95,74 %
06.07.2022 02:04 13,3 C 12,2 C 8,9 C 80 % 1025,7 hPa 0,0 l/m 0 min 0 min 0 W/m 0,0 km/h (0 Bft) 97,83 %
06.07.2022 02:02 13,3 C 12,2 C 8,9 C 80 % 1025,7 hPa 0,0 l/m 0 min 0 min 0 W/m 3,2 km/h (1 Bft) 95,74 %
06.07.2022 02:00 13,4 C 12,2 C 8,9 C 80 % 1025,6 hPa 0,0 l/m 0 min 0 min 0 W/m 3,2 km/h (1 Bft) 95,74 %
06.07.2022 01:58 13,4 C 12,2 C 9,4 C 80 % 1025,7 hPa 0,0 l/m 0 min 0 min 0 W/m 3,2 km/h (1 Bft) 95,74 %
06.07.2022 01:56 13,5 C 12,2 C 9,4 C 80 % 1025,6 hPa 0,0 l/m 0 min 0 min 0 W/m 6,4 km/h (2 Bft) 95,74 %
06.07.2022 01:54 13,5 C 12,2 C 9,4 C 80 % 1025,6 hPa 0,0 l/m 0 min 0 min 0 W/m 0,0 km/h (0 Bft) 93,62 %
06.07.2022 01:52 13,6 C 12,2 C 9,4 C 79 % 1025,6 hPa 0,0 l/m 0 min 0 min 0 W/m 0,0 km/h (0 Bft) 95,65 %
06.07.2022 01:50 13,6 C 12,2 C 9,4 C 79 % 1025,6 hPa 0,0 l/m 0 min 0 min 0 W/m 0,0 km/h (0 Bft) 93,62 %
06.07.2022 01:48 13,7 C 12,2 C 9,4 C 79 % 1025,6 hPa 0,0 l/m 0 min 0 min 0 W/m 3,2 km/h (1 Bft) 95,74 %
06.07.2022 01:46 13,7 C 12,2 C 9,4 C 79 % 1025,6 hPa 0,0 l/m 0 min 0 min 0 W/m 3,2 km/h (1 Bft) 95,74 %
06.07.2022 01:44 13,8 C 12,2 C 9,4 C 79 % 1025,6 hPa 0,0 l/m 0 min 0 min 0 W/m 0,0 km/h (0 Bft) 95,74 %
06.07.2022 01:42 13,8 C 12,8 C 9,4 C 79 % 1025,7 hPa 0,0 l/m 0 min 0 min 0 W/m 3,2 km/h (1 Bft) 95,74 %
06.07.2022 01:40 13,8 C 12,8 C 9,4 C 79 % 1025,7 hPa 0,0 l/m 0 min 0 min 0 W/m 0,0 km/h (0 Bft) 93,48 %
06.07.2022 01:38 13,9 C 12,8 C 10,0 C 79 % 1025,7 hPa 0,0 l/m 0 min 0 min 0 W/m 0,0 km/h (0 Bft) 95,74 %
06.07.2022 01:36 13,9 C 12,8 C 10,0 C 78 % 1025,6 hPa 0,0 l/m 0 min 0 min 0 W/m 3,2 km/h (1 Bft) 97,87 %
06.07.2022 01:34 13,9 C 12,8 C 10,0 C 78 % 1025,6 hPa 0,0 l/m 0 min 0 min 0 W/m 6,4 km/h (2 Bft) 97,87 %
06.07.2022 01:32 13,9 C 12,8 C 10,0 C 78 % 1025,5 hPa 0,0 l/m 0 min 0 min 0 W/m 3,2 km/h (1 Bft) 97,87 %
06.07.2022 01:30 14,0 C 12,8 C 10,0 C 78 % 1025,5 hPa 0,0 l/m 0 min 0 min 0 W/m 3,2 km/h (1 Bft) 97,87 %
06.07.2022 01:28 14,0 C 12,8 C 10,0 C 78 % 1025,5 hPa 0,0 l/m 0 min 0 min 0 W/m 3,2 km/h (1 Bft) 97,83 %
06.07.2022 01:26 14,1 C 12,8 C 10,0 C 78 % 1025,5 hPa 0,0 l/m 0 min 0 min 0 W/m 3,2 km/h (1 Bft) 97,87 %
06.07.2022 01:24 14,1 C 12,8 C 10,0 C 78 % 1025,5 hPa 0,0 l/m 0 min 0 min 0 W/m 3,2 km/h (1 Bft) 97,87 %
06.07.2022 01:22 14,1 C 12,8 C 10,0 C 78 % 1025,5 hPa 0,0 l/m 0 min 0 min 0 W/m 3,2 km/h (1 Bft) 97,87 %
06.07.2022 01:20 14,2 C 12,8 C 10,0 C 78 % 1025,5 hPa 0,0 l/m 0 min 0 min 0 W/m 3,2 km/h (1 Bft) 97,87 %
06.07.2022 01:18 14,3 C 13,3 C 10,0 C 78 % 1025,5 hPa 0,0 l/m 0 min 0 min 0 W/m 0,0 km/h (0 Bft) 97,87 %
06.07.2022 01:16 14,3 C 13,3 C 10,0 C 78 % 1025,5 hPa 0,0 l/m 0 min 0 min 0 W/m 3,2 km/h (1 Bft) 97,83 %
06.07.2022 01:14 14,3 C 13,3 C 10,0 C 77 % 1025,5 hPa 0,0 l/m 0 min 0 min 0 W/m 3,2 km/h (1 Bft) 97,87 %
06.07.2022 01:12 14,3 C 13,3 C 10,6 C 78 % 1025,5 hPa 0,0 l/m 0 min 0 min 0 W/m 3,2 km/h (1 Bft) 97,87 %
06.07.2022 01:10 14,3 C 13,3 C 10,6 C 77 % 1025,5 hPa 0,0 l/m 0 min 0 min 0 W/m 3,2 km/h (1 Bft) 100,00 %
06.07.2022 01:08 14,3 C 13,3 C 10,6 C 77 % 1025,5 hPa 0,0 l/m 0 min 0 min 0 W/m 3,2 km/h (1 Bft) 100,00 %
06.07.2022 01:06 14,3 C 13,3 C 10,6 C 77 % 1025,5 hPa 0,0 l/m 0 min 0 min 0 W/m 3,2 km/h (1 Bft) 100,00 %
06.07.2022 01:04 14,4 C 13,3 C 10,6 C 77 % 1025,5 hPa 0,0 l/m 0 min 0 min 0 W/m 6,4 km/h (2 Bft) 97,87 %
06.07.2022 01:02 14,4 C 13,3 C 10,0 C 77 % 1025,5 hPa 0,0 l/m 0 min 0 min 0 W/m 9,7 km/h (2 Bft) 97,87 %
06.07.2022 01:00 14,5 C 13,3 C 10,6 C 77 % 1025,5 hPa 0,0 l/m 0 min 0 min 0 W/m 6,4 km/h (2 Bft) 100,00 %
06.07.2022 00:58 14,6 C 13,3 C 10,6 C 77 % 1025,5 hPa 0,0 l/m 0 min 0 min 0 W/m 6,4 km/h (2 Bft) 100,00 %
06.07.2022 00:56 14,6 C 13,3 C 10,6 C 77 % 1025,5 hPa 0,0 l/m 0 min 0 min 0 W/m 12,9 km/h (3 Bft) 97,87 %
06.07.2022 00:54 14,7 C 13,9 C 10,6 C 77 % 1025,5 hPa 0,0 l/m 0 min 0 min 0 W/m 9,7 km/h (2 Bft) 100,00 %
06.07.2022 00:52 14,8 C 13,9 C 10,6 C 77 % 1025,5 hPa 0,0 l/m 0 min 0 min 0 W/m 12,9 km/h (3 Bft) 100,00 %
06.07.2022 00:50 14,8 C 13,9 C 10,6 C 77 % 1025,4 hPa 0,0 l/m 0 min 0 min 0 W/m 9,7 km/h (2 Bft) 100,00 %
06.07.2022 00:48 14,9 C 13,9 C 10,6 C 78 % 1025,5 hPa 0,0 l/m 0 min 0 min 0 W/m 9,7 km/h (2 Bft) 97,87 %
06.07.2022 00:46 14,9 C 13,9 C 10,6 C 78 % 1025,4 hPa 0,0 l/m 0 min 0 min 0 W/m 6,4 km/h (2 Bft) 97,87 %
06.07.2022 00:44 15,0 C 13,9 C 10,6 C 78 % 1025,5 hPa 0,0 l/m 0 min 0 min 0 W/m 6,4 km/h (2 Bft) 97,87 %
06.07.2022 00:42 15,1 C 13,9 C 10,6 C 78 % 1025,4 hPa 0,0 l/m 0 min 0 min 0 W/m 6,4 km/h (2 Bft) 97,83 %
06.07.2022 00:40 15,1 C 13,9 C 10,6 C 78 % 1025,5 hPa 0,0 l/m 0 min 0 min 0 W/m 3,2 km/h (1 Bft) 97,87 %
06.07.2022 00:38 15,1 C 13,9 C 10,6 C 78 % 1025,4 hPa 0,0 l/m 0 min 0 min 0 W/m 3,2 km/h (1 Bft) 97,87 %
06.07.2022 00:36 15,1 C 13,9 C 11,1 C 78 % 1025,5 hPa 0,0 l/m 0 min 0 min 0 W/m 6,4 km/h (2 Bft) 97,87 %
06.07.2022 00:34 15,2 C 13,9 C 11,1 C 78 % 1025,4 hPa 0,0 l/m 0 min 0 min 0 W/m 3,2 km/h (1 Bft) 95,74 %
06.07.2022 00:32 15,2 C 13,9 C 11,1 C 78 % 1025,4 hPa 0,0 l/m 0 min 0 min 0 W/m 3,2 km/h (1 Bft) 95,74 %
06.07.2022 00:30 15,2 C 13,9 C 11,1 C 78 % 1025,5 hPa 0,0 l/m 0 min 0 min 0 W/m 6,4 km/h (2 Bft) 97,83 %
06.07.2022 00:28 15,3 C 13,9 C 11,1 C 78 % 1025,5 hPa 0,0 l/m 0 min 0 min 0 W/m 6,4 km/h (2 Bft) 97,87 %
06.07.2022 00:26 15,3 C 13,9 C 11,1 C 78 % 1025,5 hPa 0,0 l/m 0 min 0 min 0 W/m 6,4 km/h (2 Bft) 97,87 %
06.07.2022 00:24 15,3 C 13,9 C 11,1 C 78 % 1025,4 hPa 0,0 l/m 0 min 0 min 0 W/m 6,4 km/h (2 Bft) 97,87 %
06.07.2022 00:22 15,3 C 13,9 C 11,1 C 78 % 1025,4 hPa 0,0 l/m 0 min 0 min 0 W/m 6,4 km/h (2 Bft) 97,87 %
06.07.2022 00:20 15,4 C 13,9 C 11,1 C 78 % 1025,4 hPa 0,0 l/m 0 min 0 min 0 W/m 3,2 km/h (1 Bft) 93,48 %
06.07.2022 00:18 15,4 C 13,9 C 11,1 C 78 % 1025,4 hPa 0,0 l/m 0 min 0 min 0 W/m 6,4 km/h (2 Bft) 100,00 %
06.07.2022 00:16 15,5 C 13,9 C 11,1 C 78 % 1025,4 hPa 0,0 l/m 0 min 0 min 0 W/m 0,0 km/h (0 Bft) 98,00 %
06.07.2022 00:14 15,5 C 14,4 C 11,1 C 77 % 1025,4 hPa 0,0 l/m 0 min 0 min 0 W/m 6,4 km/h (2 Bft) 97,87 %
06.07.2022 00:12 15,6 C 14,4 C 11,1 C 77 % 1025,4 hPa 0,0 l/m 0 min 0 min 0 W/m 3,2 km/h (1 Bft) 100,00 %
06.07.2022 00:10 15,6 C 14,4 C 11,1 C 77 % 1025,4 hPa 0,0 l/m 0 min 0 min 0 W/m 0,0 km/h (0 Bft) 100,00 %
06.07.2022 00:08 15,7 C 14,4 C 11,7 C 77 % 1025,4 hPa 0,0 l/m 0 min 0 min 0 W/m 3,2 km/h (1 Bft) 100,00 %
06.07.2022 00:07 15,7 C 14,4 C 11,7 C 77 % 1025,4 hPa 0,0 l/m 0 min 0 min 0 W/m 3,2 km/h (1 Bft) 100,00 %
06.07.2022 00:04 15,8 C 14,4 C 11,7 C 77 % 1025,3 hPa 0,0 l/m 0 min 0 min 0 W/m 3,2 km/h (1 Bft) 100,00 %
06.07.2022 00:02 15,8 C 14,4 C 11,7 C 77 % 1025,3 hPa 0,0 l/m 0 min 0 min 0 W/m 3,2 km/h (1 Bft) 95,65 %
06.07.2022 00:00 15,8 C 14,4 C 11,7 C 76 % 1025,3 hPa 0,0 l/m 0 min 0 min 0 W/m 0,0 km/h (0 Bft) 97,87 %
05.07.2022 23:58 15,9 C 14,4 C 11,7 C 76 % 1025,3 hPa 0,0 l/m 0 min 0 min 0 W/m 3,2 km/h (1 Bft) 100,00 %
05.07.2022 23:56 15,9 C 14,4 C 11,7 C 75 % 1025,3 hPa 0,0 l/m 0 min 0 min 0 W/m 6,4 km/h (2 Bft) 97,87 %
05.07.2022 23:54 15,9 C 14,4 C 11,7 C 76 % 1025,3 hPa 0,0 l/m 0 min 0 min 0 W/m 3,2 km/h (1 Bft) 100,00 %
05.07.2022 23:52 16,1 C 15,0 C 11,7 C 75 % 1025,3 hPa 0,0 l/m 0 min 0 min 0 W/m 3,2 km/h (1 Bft) 97,87 %
05.07.2022 23:50 16,1 C 15,0 C 11,7 C 75 % 1025,2 hPa 0,0 l/m 0 min 0 min 0 W/m 6,4 km/h (2 Bft) 100,00 %
05.07.2022 23:48 16,1 C 15,0 C 11,7 C 75 % 1025,2 hPa 0,0 l/m 0 min 0 min 0 W/m 3,2 km/h (1 Bft) 100,00 %
05.07.2022 23:46 16,2 C 15,0 C 11,7 C 75 % 1025,2 hPa 0,0 l/m 0 min 0 min 0 W/m 6,4 km/h (2 Bft) 100,00 %
05.07.2022 23:44 16,2 C 15,0 C 11,7 C 74 % 1025,2 hPa 0,0 l/m 0 min 0 min 0 W/m 3,2 km/h (1 Bft) 100,00 %
05.07.2022 23:42 16,2 C 15,0 C 11,7 C 74 % 1025,2 hPa 0,0 l/m 0 min 0 min 0 W/m 3,2 km/h (1 Bft) 100,00 %
05.07.2022 23:40 16,3 C 15,0 C 11,7 C 74 % 1025,2 hPa 0,0 l/m 0 min 0 min 0 W/m 3,2 km/h (1 Bft) 100,00 %
05.07.2022 23:38 16,3 C 15,0 C 11,7 C 73 % 1025,2 hPa 0,0 l/m 0 min 0 min 0 W/m 6,4 km/h (2 Bft) 100,00 %
05.07.2022 23:36 16,3 C 15,0 C 12,2 C 73 % 1025,2 hPa 0,0 l/m 0 min 0 min 0 W/m 6,4 km/h (2 Bft) 97,87 %
05.07.2022 23:34 16,4 C 15,6 C 12,2 C 73 % 1025,1 hPa 0,0 l/m 0 min 0 min 0 W/m 6,4 km/h (2 Bft) 100,00 %
05.07.2022 23:32 16,4 C 15,6 C 12,2 C 73 % 1025,1 hPa 0,0 l/m 0 min 0 min 0 W/m 6,4 km/h (2 Bft) 95,83 %
05.07.2022 23:30 16,4 C 15,6 C 12,2 C 73 % 1025,1 hPa 0,0 l/m 0 min 0 min 0 W/m 6,4 km/h (2 Bft) 100,00 %
05.07.2022 23:28 16,5 C 15,6 C 12,2 C 73 % 1025,1 hPa 0,0 l/m 0 min 0 min 0 W/m 9,7 km/h (2 Bft) 100,00 %
05.07.2022 23:26 16,5 C 15,6 C 12,2 C 72 % 1025,1 hPa 0,0 l/m 0 min 0 min 0 W/m 6,4 km/h (2 Bft) 100,00 %
05.07.2022 23:24 16,6 C 15,6 C 12,2 C 72 % 1025,0 hPa 0,0 l/m 0 min 0 min 0 W/m 9,7 km/h (2 Bft) 100,00 %
05.07.2022 23:22 16,6 C 15,6 C 12,2 C 72 % 1025,0 hPa 0,0 l/m 0 min 0 min 0 W/m 9,7 km/h (2 Bft) 97,87 %
05.07.2022 23:20 16,6 C 15,6 C 12,2 C 72 % 1025,0 hPa 0,0 l/m 0 min 0 min 0 W/m 9,7 km/h (2 Bft) 97,87 %
05.07.2022 23:18 16,7 C 15,6 C 12,2 C 72 % 1024,9 hPa 0,0 l/m 0 min 0 min 0 W/m 9,7 km/h (2 Bft) 97,83 %
05.07.2022 23:16 16,7 C 15,6 C 12,2 C 72 % 1024,9 hPa 0,0 l/m 0 min 0 min 0 W/m 9,7 km/h (2 Bft) 97,87 %
05.07.2022 23:14 16,8 C 15,6 C 12,2 C 71 % 1024,9 hPa 0,0 l/m 0 min 0 min 0 W/m 16,1 km/h (3 Bft) 95,74 %
05.07.2022 23:12 16,8 C 15,6 C 12,2 C 71 % 1024,8 hPa 0,0 l/m 0 min 0 min 0 W/m 16,1 km/h (3 Bft) 100,00 %
05.07.2022 23:10 16,9 C 15,6 C 12,8 C 71 % 1024,8 hPa 0,0 l/m 0 min 0 min 0 W/m 19,3 km/h (3 Bft) 95,74 %
05.07.2022 23:08 16,9 C 15,6 C 12,8 C 71 % 1024,8 hPa 0,0 l/m 0 min 0 min 0 W/m 12,9 km/h (3 Bft) 93,48 %
05.07.2022 23:06 17,0 C 15,6 C 12,8 C 71 % 1024,8 hPa 0,0 l/m 0 min 0 min 0 W/m 25,7 km/h (4 Bft) 95,74 %
05.07.2022 23:04 17,1 C 16,1 C 12,8 C 70 % 1024,8 hPa 0,0 l/m 0 min 0 min 0 W/m 12,9 km/h (3 Bft) 93,62 %
05.07.2022 23:02 17,2 C 16,1 C 12,8 C 70 % 1024,7 hPa 0,0 l/m 0 min 0 min 0 W/m 16,1 km/h (3 Bft) 93,62 %
05.07.2022 23:00 17,2 C 16,1 C 12,8 C 70 % 1024,7 hPa 0,0 l/m 0 min 0 min 0 W/m 12,9 km/h (3 Bft) 93,62 %
05.07.2022 22:58 17,3 C 16,1 C 12,8 C 70 % 1024,7 hPa 0,0 l/m 0 min 0 min 0 W/m 16,1 km/h (3 Bft) 91,49 %
05.07.2022 22:56 17,4 C 16,1 C 12,8 C 69 % 1024,6 hPa 0,0 l/m 0 min 0 min 0 W/m 16,1 km/h (3 Bft) 93,48 %
05.07.2022 22:54 17,5 C 16,1 C 12,8 C 69 % 1024,6 hPa 0,0 l/m 0 min 0 min 0 W/m 19,3 km/h (3 Bft) 91,49 %
05.07.2022 22:52 17,6 C 16,1 C 12,8 C 69 % 1024,6 hPa 0,0 l/m 0 min 0 min 0 W/m 19,3 km/h (3 Bft) 93,62 %
05.07.2022 22:50 17,6 C 16,7 C 13,3 C 69 % 1024,5 hPa 0,0 l/m 0 min 0 min 0 W/m 16,1 km/h (3 Bft) 91,49 %
05.07.2022 22:48 17,7 C 16,7 C 13,3 C 69 % 1024,5 hPa 0,0 l/m 0 min 0 min 0 W/m 19,3 km/h (3 Bft) 93,62 %
05.07.2022 22:46 17,8 C 16,7 C 13,3 C 68 % 1024,5 hPa 0,0 l/m 0 min 0 min 0 W/m 16,1 km/h (3 Bft) 93,62 %
05.07.2022 22:44 17,8 C 16,7 C 13,3 C 68 % 1024,5 hPa 0,0 l/m 0 min 0 min 0 W/m 16,1 km/h (3 Bft) 93,48 %
05.07.2022 22:42 17,9 C 16,7 C 13,9 C 68 % 1024,4 hPa 0,0 l/m 0 min 0 min 0 W/m 25,7 km/h (4 Bft) 93,62 %
05.07.2022 22:40 17,9 C 17,2 C 13,9 C 68 % 1024,5 hPa 0,0 l/m 0 min 0 min 0 W/m 16,1 km/h (3 Bft) 93,62 %
05.07.2022 22:38 18,0 C 17,2 C 13,9 C 68 % 1024,5 hPa 0,0 l/m 0 min 0 min 0 W/m 9,7 km/h (2 Bft) 91,49 %
05.07.2022 22:36 18,0 C 17,2 C 13,9 C 68 % 1024,4 hPa 0,0 l/m 0 min 0 min 0 W/m 12,9 km/h (3 Bft) 95,65 %
05.07.2022 22:34 18,1 C 17,2 C 13,9 C 67 % 1024,4 hPa 0,0 l/m 0 min 0 min 0 W/m 22,5 km/h (4 Bft) 93,62 %
05.07.2022 22:32 18,1 C 17,2 C 13,9 C 67 % 1024,4 hPa 0,0 l/m 0 min 0 min 0 W/m 12,9 km/h (3 Bft) 97,83 %
05.07.2022 22:30 18,1 C 17,2 C 13,9 C 67 % 1024,4 hPa 0,0 l/m 0 min 0 min 0 W/m 6,4 km/h (2 Bft) 97,87 %
05.07.2022 22:28 18,1 C 17,2 C 13,9 C 66 % 1024,4 hPa 0,0 l/m 0 min 0 min 0 W/m 6,4 km/h (2 Bft) 97,87 %
05.07.2022 22:26 18,2 C 17,2 C 13,9 C 66 % 1024,3 hPa 0,0 l/m 0 min 0 min 0 W/m 9,7 km/h (2 Bft) 95,74 %
05.07.2022 22:24 18,2 C 17,2 C 13,9 C 66 % 1024,3 hPa 0,0 l/m 0 min 0 min 0 W/m 9,7 km/h (2 Bft) 93,62 %
05.07.2022 22:22 18,2 C 17,2 C 13,9 C 65 % 1024,2 hPa 0,0 l/m 0 min 0 min 0 W/m 9,7 km/h (2 Bft) 97,87 %
05.07.2022 22:20 18,2 C 17,2 C 13,9 C 65 % 1024,2 hPa 0,0 l/m 0 min 0 min 0 W/m 6,4 km/h (2 Bft) 100,00 %
05.07.2022 22:18 18,3 C 17,2 C 13,9 C 65 % 1024,1 hPa 0,0 l/m 0 min 0 min 0 W/m 16,1 km/h (3 Bft) 97,87 %
05.07.2022 22:16 18,3 C 17,2 C 13,9 C 65 % 1024,1 hPa 0,0 l/m 0 min 0 min 0 W/m 19,3 km/h (3 Bft) 100,00 %
05.07.2022 22:14 18,3 C 17,2 C 13,9 C 64 % 1024,1 hPa 0,0 l/m 0 min 0 min 0 W/m 29,0 km/h (5 Bft) 100,00 %
05.07.2022 22:12 18,4 C 17,2 C 13,9 C 64 % 1024,1 hPa 0,0 l/m 0 min 0 min 0 W/m 25,7 km/h (4 Bft) 100,00 %
05.07.2022 22:10 18,4 C 17,2 C 14,4 C 64 % 1024,2 hPa 0,0 l/m 0 min 0 min 0 W/m 19,3 km/h (3 Bft) 97,87 %
05.07.2022 22:08 18,5 C 17,8 C 14,4 C 64 % 1024,1 hPa 0,0 l/m 0 min 0 min 0 W/m 19,3 km/h (3 Bft) 100,00 %
05.07.2022 22:06 18,6 C 17,8 C 14,4 C 64 % 1024,0 hPa 0,0 l/m 0 min 0 min 0 W/m 16,1 km/h (3 Bft) 100,00 %
05.07.2022 22:04 18,6 C 17,8 C 14,4 C 64 % 1024,0 hPa 0,0 l/m 0 min 0 min 0 W/m 16,1 km/h (3 Bft) 100,00 %
05.07.2022 22:02 18,6 C 17,8 C 14,4 C 64 % 1024,0 hPa 0,0 l/m 0 min 0 min 0 W/m 16,1 km/h (3 Bft) 100,00 %
05.07.2022 22:00 18,6 C 17,8 C 14,4 C 64 % 1023,9 hPa 0,0 l/m 0 min 0 min 0 W/m 16,1 km/h (3 Bft) 100,00 %
05.07.2022 21:58 18,6 C 17,8 C 14,4 C 64 % 1023,9 hPa 0,0 l/m 0 min 0 min 0 W/m 12,9 km/h (3 Bft) 100,00 %
05.07.2022 21:56 18,7 C 17,8 C 14,4 C 64 % 1023,8 hPa 0,0 l/m 0 min 0 min 0 W/m 22,5 km/h (4 Bft) 100,00 %
05.07.2022 21:54 18,7 C 17,8 C 14,4 C 64 % 1023,8 hPa 0,0 l/m 0 min 0 min 0 W/m 12,9 km/h (3 Bft) 100,00 %
05.07.2022 21:52 18,7 C 17,8 C 14,4 C 64 % 1023,8 hPa 0,0 l/m 0 min 0 min 2 W/m 6,4 km/h (2 Bft) 97,87 %
05.07.2022 21:50 18,7 C 17,8 C 14,4 C 64 % 1023,7 hPa 0,0 l/m 0 min 0 min 5 W/m 22,5 km/h (4 Bft) 100,00 %
05.07.2022 21:48 18,7 C 17,8 C 14,4 C 64 % 1023,7 hPa 0,0 l/m 0 min 0 min 5 W/m 16,1 km/h (3 Bft) 97,87 %
05.07.2022 21:46 18,8 C 17,8 C 14,4 C 64 % 1023,7 hPa 0,0 l/m 0 min 0 min 5 W/m 16,1 km/h (3 Bft) 100,00 %
05.07.2022 21:44 18,8 C 17,8 C 14,4 C 64 % 1023,7 hPa 0,0 l/m 0 min 0 min 7 W/m 9,7 km/h (2 Bft) 100,00 %
05.07.2022 21:42 18,8 C 17,8 C 14,4 C 64 % 1023,7 hPa 0,0 l/m 0 min 0 min 7 W/m 9,7 km/h (2 Bft) 100,00 %
05.07.2022 21:40 18,8 C 17,8 C 14,4 C 64 % 1023,7 hPa 0,0 l/m 0 min 0 min 7 W/m 19,3 km/h (3 Bft) 100,00 %
05.07.2022 21:38 18,8 C 18,3 C 15,0 C 65 % 1023,7 hPa 0,0 l/m 0 min 0 min 7 W/m 19,3 km/h (3 Bft) 100,00 %
05.07.2022 21:36 18,9 C 18,3 C 14,4 C 64 % 1023,7 hPa 0,0 l/m 0 min 0 min 7 W/m 12,9 km/h (3 Bft) 100,00 %
05.07.2022 21:34 18,9 C 18,3 C 14,4 C 64 % 1023,7 hPa 0,0 l/m 0 min 0 min 7 W/m 19,3 km/h (3 Bft) 100,00 %
05.07.2022 21:32 18,9 C 18,3 C 15,0 C 64 % 1023,7 hPa 0,0 l/m 0 min 0 min 5 W/m 22,5 km/h (4 Bft) 100,00 %
05.07.2022 21:30 18,9 C 18,3 C 15,0 C 64 % 1023,7 hPa 0,0 l/m 0 min 0 min 5 W/m 9,7 km/h (2 Bft) 100,00 %
05.07.2022 21:28 18,9 C 17,8 C 14,4 C 64 % 1023,6 hPa 0,0 l/m 0 min 0 min 5 W/m 22,5 km/h (4 Bft) 100,00 %
05.07.2022 21:26 19,0 C 18,3 C 15,0 C 64 % 1023,6 hPa 0,0 l/m 0 min 0 min 7 W/m 19,3 km/h (3 Bft) 100,00 %
05.07.2022 21:24 19,0 C 18,3 C 15,0 C 63 % 1023,6 hPa 0,0 l/m 0 min 0 min 7 W/m 25,7 km/h (4 Bft) 100,00 %
05.07.2022 21:22 19,1 C 18,3 C 15,0 C 63 % 1023,6 hPa 0,0 l/m 0 min 0 min 9 W/m 25,7 km/h (4 Bft) 100,00 %
05.07.2022 21:20 19,1 C 18,3 C 15,0 C 63 % 1023,7 hPa 0,0 l/m 0 min 0 min 9 W/m 19,3 km/h (3 Bft) 97,83 %
05.07.2022 21:18 19,2 C 18,3 C 15,0 C 63 % 1023,6 hPa 0,0 l/m 0 min 0 min 9 W/m 12,9 km/h (3 Bft) 100,00 %
05.07.2022 21:16 19,2 C 18,3 C 15,0 C 63 % 1023,6 hPa 0,0 l/m 0 min 0 min 10 W/m 19,3 km/h (3 Bft) 100,00 %
05.07.2022 21:14 19,2 C 18,3 C 15,0 C 63 % 1023,5 hPa 0,0 l/m 0 min 0 min 12 W/m 22,5 km/h (4 Bft) 97,87 %
05.07.2022 21:12 19,3 C 18,3 C 15,0 C 63 % 1023,5 hPa 0,0 l/m 0 min 0 min 11 W/m 19,3 km/h (3 Bft) 93,62 %
05.07.2022 21:10 19,3 C 18,3 C 15,0 C 63 % 1023,5 hPa 0,0 l/m 0 min 0 min 11 W/m 19,3 km/h (3 Bft) 97,87 %
05.07.2022 21:08 19,3 C 18,3 C 15,0 C 63 % 1023,5 hPa 0,0 l/m 0 min 0 min 11 W/m 16,1 km/h (3 Bft) 95,65 %
05.07.2022 21:06 19,3 C 18,3 C 15,0 C 63 % 1023,4 hPa 0,0 l/m 0 min 0 min 11 W/m 22,5 km/h (4 Bft) 97,87 %
05.07.2022 21:04 19,4 C 18,3 C 15,0 C 63 % 1023,4 hPa 0,0 l/m 0 min 0 min 11 W/m 16,1 km/h (3 Bft) 97,87 %
05.07.2022 21:02 19,4 C 18,3 C 15,0 C 63 % 1023,3 hPa 0,0 l/m 0 min 0 min 11 W/m 19,3 km/h (3 Bft) 97,87 %
05.07.2022 21:00 19,5 C 18,3 C 15,0 C 63 % 1023,3 hPa 0,0 l/m 0 min 0 min 11 W/m 12,9 km/h (3 Bft) 95,74 %
05.07.2022 20:58 19,6 C 18,3 C 15,0 C 63 % 1023,4 hPa 0,0 l/m 0 min 0 min 11 W/m 9,7 km/h (2 Bft) 97,87 %
05.07.2022 20:56 19,6 C 18,9 C 15,0 C 63 % 1023,4 hPa 0,0 l/m 0 min 0 min 12 W/m 9,7 km/h (2 Bft) 97,83 %
05.07.2022 20:54 19,6 C 18,9 C 15,6 C 62 % 1023,3 hPa 0,0 l/m 0 min 0 min 14 W/m 16,1 km/h (3 Bft) 97,87 %
05.07.2022 20:52 19,7 C 18,9 C 15,6 C 63 % 1023,2 hPa 0,0 l/m 0 min 0 min 21 W/m 22,5 km/h (4 Bft) 97,87 %
05.07.2022 20:50 19,7 C 18,9 C 15,6 C 63 % 1023,2 hPa 0,0 l/m 0 min 0 min 23 W/m 9,7 km/h (2 Bft) 97,87 %
05.07.2022 20:48 19,8 C 18,9 C 15,6 C 62 % 1023,3 hPa 0,0 l/m 0 min 0 min 23 W/m 9,7 km/h (2 Bft) 97,87 %
05.07.2022 20:46 19,8 C 18,9 C 15,6 C 62 % 1023,3 hPa 0,0 l/m 0 min 0 min 32 W/m 16,1 km/h (3 Bft) 97,87 %
05.07.2022 20:44 19,8 C 18,9 C 15,6 C 62 % 1023,3 hPa 0,0 l/m 0 min 0 min 42 W/m 16,1 km/h (3 Bft) 97,83 %
05.07.2022 20:42 19,8 C 18,9 C 16,1 C 62 % 1023,2 hPa 0,0 l/m 0 min 0 min 54 W/m 16,1 km/h (3 Bft) 97,87 %
05.07.2022 20:40 19,9 C 18,9 C 15,6 C 62 % 1023,2 hPa 0,0 l/m 0 min 0 min 54 W/m 12,9 km/h (3 Bft) 100,00 %
05.07.2022 20:38 19,9 C 18,9 C 15,6 C 61 % 1023,2 hPa 0,0 l/m 0 min 0 min 56 W/m 25,7 km/h (4 Bft) 100,00 %
05.07.2022 20:36 19,9 C 18,9 C 15,6 C 61 % 1023,2 hPa 0,0 l/m 0 min 0 min 60 W/m 22,5 km/h (4 Bft) 100,00 %
05.07.2022 20:34 20,1 C 18,9 C 15,6 C 61 % 1023,2 hPa 0,0 l/m 0 min 0 min 55 W/m 25,7 km/h (4 Bft) 97,87 %
05.07.2022 20:32 20,1 C 19,4 C 16,1 C 61 % 1023,2 hPa 0,0 l/m 0 min 0 min 47 W/m 25,7 km/h (4 Bft) 95,65 %
05.07.2022 20:30 20,2 C 19,4 C 16,1 C 61 % 1023,2 hPa 0,0 l/m 0 min 0 min 45 W/m 19,3 km/h (3 Bft) 100,00 %
05.07.2022 20:28 20,3 C 19,4 C 16,1 C 61 % 1023,1 hPa 0,0 l/m 0 min 0 min 47 W/m 19,3 km/h (3 Bft) 100,00 %
05.07.2022 20:26 20,3 C 19,4 C 16,1 C 61 % 1023,2 hPa 0,0 l/m 0 min 0 min 47 W/m 22,5 km/h (4 Bft) 100,00 %
05.07.2022 20:24 20,4 C 19,4 C 16,1 C 61 % 1023,1 hPa 0,0 l/m 0 min 0 min 55 W/m 22,5 km/h (4 Bft) 97,87 %
05.07.2022 20:22 20,4 C 20,0 C 16,1 C 61 % 1023,1 hPa 0,0 l/m 0 min 0 min 71 W/m 22,5 km/h (4 Bft) 95,74 %
05.07.2022 20:20 20,5 C 20,0 C 16,1 C 61 % 1023,1 hPa 0,0 l/m 0 min 0 min 88 W/m 22,5 km/h (4 Bft) 97,83 %
05.07.2022 20:18 20,5 C 20,0 C 16,1 C 61 % 1023,1 hPa 0,0 l/m 0 min 0 min 93 W/m 16,1 km/h (3 Bft) 97,87 %
05.07.2022 20:16 20,6 C 20,0 C 16,1 C 61 % 1023,1 hPa 0,0 l/m 0 min 0 min 84 W/m 19,3 km/h (3 Bft) 93,62 %
05.07.2022 20:14 20,6 C 20,0 C 16,7 C 61 % 1023,1 hPa 0,0 l/m 0 min 0 min 78 W/m 12,9 km/h (3 Bft) 95,74 %
05.07.2022 20:12 20,6 C 20,0 C 16,7 C 61 % 1023,0 hPa 0,0 l/m 0 min 0 min 76 W/m 12,9 km/h (3 Bft) 95,74 %
05.07.2022 20:10 20,6 C 20,0 C 16,1 C 61 % 1023,0 hPa 0,0 l/m 0 min 0 min 76 W/m 19,3 km/h (3 Bft) 95,74 %
05.07.2022 20:08 20,7 C 20,0 C 16,7 C 61 % 1023,0 hPa 0,0 l/m 0 min 0 min 75 W/m 16,1 km/h (3 Bft) 95,65 %
05.07.2022 20:06 20,7 C 20,0 C 16,7 C 61 % 1023,0 hPa 0,0 l/m 0 min 0 min 73 W/m 9,7 km/h (2 Bft) 93,62 %
05.07.2022 20:04 20,7 C 20,0 C 16,7 C 61 % 1023,1 hPa 0,0 l/m 0 min 0 min 73 W/m 16,1 km/h (3 Bft) 93,62 %
05.07.2022 20:02 20,7 C 20,0 C 16,7 C 60 % 1023,0 hPa 0,0 l/m 0 min 0 min 83 W/m 16,1 km/h (3 Bft) 95,74 %
05.07.2022 20:00 20,7 C 20,0 C 16,7 C 60 % 1023,0 hPa 0,0 l/m 0 min 0 min 98 W/m 22,5 km/h (4 Bft) 95,74 %
05.07.2022 19:58 20,8 C 20,0 C 16,7 C 60 % 1023,0 hPa 0,0 l/m 0 min 0 min 104 W/m 29,0 km/h (5 Bft) 95,65 %
05.07.2022 19:56 20,8 C 20,0 C 16,7 C 60 % 1022,9 hPa 0,0 l/m 0 min 0 min 100 W/m 19,3 km/h (3 Bft) 95,74 %
05.07.2022 19:54 20,9 C 20,0 C 16,7 C 60 % 1023,0 hPa 0,0 l/m 0 min 0 min 93 W/m 12,9 km/h (3 Bft) 93,62 %
05.07.2022 19:52 20,9 C 20,0 C 16,7 C 60 % 1023,0 hPa 0,0 l/m 0 min 0 min 89 W/m 29,0 km/h (5 Bft) 95,74 %
05.07.2022 19:50 21,0 C 20,0 C 16,7 C 60 % 1022,9 hPa 0,0 l/m 0 min 0 min 94 W/m 22,5 km/h (4 Bft) 95,74 %
05.07.2022 19:48 21,0 C 20,6 C 17,2 C 61 % 1022,9 hPa 0,0 l/m 0 min 0 min 103 W/m 19,3 km/h (3 Bft) 93,62 %
05.07.2022 19:46 21,0 C 20,6 C 17,2 C 61 % 1022,9 hPa 0,0 l/m 0 min 0 min 109 W/m 12,9 km/h (3 Bft) 95,74 %
05.07.2022 19:44 21,1 C 20,6 C 17,2 C 60 % 1022,9 hPa 0,0 l/m 0 min 0 min 113 W/m 29,0 km/h (5 Bft) 95,65 %
05.07.2022 19:42 21,1 C 20,6 C 17,2 C 61 % 1022,9 hPa 0,0 l/m 0 min 0 min 115 W/m 19,3 km/h (3 Bft) 95,74 %
05.07.2022 19:40 21,1 C 20,6 C 17,2 C 61 % 1022,9 hPa 0,0 l/m 0 min 0 min 112 W/m 22,5 km/h (4 Bft) 95,74 %
05.07.2022 19:38 21,1 C 20,6 C 17,2 C 61 % 1022,9 hPa 0,0 l/m 0 min 0 min 104 W/m 22,5 km/h (4 Bft) 95,74 %
05.07.2022 19:36 21,1 C 21,1 C 17,2 C 62 % 1022,8 hPa 0,0 l/m 0 min 0 min 93 W/m 9,7 km/h (2 Bft) 95,74 %
05.07.2022 19:34 21,1 C 20,6 C 17,2 C 61 % 1022,8 hPa 0,0 l/m 0 min 0 min 92 W/m 12,9 km/h (3 Bft) 93,48 %
05.07.2022 19:32 21,1 C 20,6 C 17,2 C 61 % 1022,9 hPa 0,0 l/m 0 min 0 min 91 W/m 12,9 km/h (3 Bft) 95,74 %
05.07.2022 19:30 21,2 C 21,1 C 17,2 C 61 % 1022,9 hPa 0,0 l/m 0 min 0 min 85 W/m 12,9 km/h (3 Bft) 97,87 %
05.07.2022 19:28 21,2 C 21,1 C 17,2 C 61 % 1022,8 hPa 0,0 l/m 0 min 0 min 90 W/m 16,1 km/h (3 Bft) 100,00 %
05.07.2022 19:26 21,3 C 21,1 C 17,2 C 61 % 1022,9 hPa 0,0 l/m 0 min 0 min 104 W/m 12,9 km/h (3 Bft) 97,87 %
05.07.2022 19:24 21,3 C 21,1 C 17,2 C 61 % 1022,8 hPa 0,0 l/m 0 min 0 min 122 W/m 19,3 km/h (3 Bft) 100,00 %
05.07.2022 19:22 21,3 C 21,1 C 17,2 C 61 % 1022,8 hPa 0,0 l/m 0 min 0 min 107 W/m 19,3 km/h (3 Bft) 50,00 %
05.07.2022 19:20 21,3 C 21,1 C 17,2 C 62 % 1022,8 hPa 0,0 l/m 0 min 0 min 113 W/m 16,1 km/h (3 Bft) 89,36 %
05.07.2022 19:18 21,3 C 21,1 C 17,2 C 61 % 1022,8 hPa 0,0 l/m 0 min 0 min 136 W/m 19,3 km/h (3 Bft) 100,00 %
05.07.2022 19:16 21,3 C 21,1 C 17,2 C 61 % 1022,7 hPa 0,0 l/m 2 min 0 min 173 W/m 22,5 km/h (4 Bft) 97,87 %
05.07.2022 19:14 21,4 C 21,1 C 17,2 C 62 % 1022,8 hPa 0,0 l/m 2 min 0 min 212 W/m 16,1 km/h (3 Bft) 97,87 %
05.07.2022 19:12 21,4 C 21,1 C 17,2 C 61 % 1022,7 hPa 0,0 l/m 0 min 0 min 133 W/m 19,3 km/h (3 Bft) 97,87 %
05.07.2022 19:10 21,4 C 21,1 C 17,2 C 61 % 1022,8 hPa 0,0 l/m 0 min 0 min 108 W/m 16,1 km/h (3 Bft) 97,83 %
05.07.2022 19:08 21,5 C 21,1 C 17,2 C 62 % 1022,7 hPa 0,0 l/m 0 min 0 min 107 W/m 22,5 km/h (4 Bft) 97,87 %
05.07.2022 19:06 21,6 C 21,1 C 17,2 C 62 % 1022,7 hPa 0,0 l/m 0 min 0 min 115 W/m 16,1 km/h (3 Bft) 97,87 %
05.07.2022 19:04 21,6 C 21,1 C 17,2 C 62 % 1022,6 hPa 0,0 l/m 0 min 0 min 124 W/m 12,9 km/h (3 Bft) 97,87 %
05.07.2022 19:02 21,7 C 21,1 C 17,2 C 62 % 1022,6 hPa 0,0 l/m 0 min 0 min 129 W/m 25,7 km/h (4 Bft) 91,49 %
05.07.2022 19:00 21,7 C 21,1 C 17,2 C 62 % 1022,6 hPa 0,0 l/m 0 min 0 min 122 W/m 19,3 km/h (3 Bft) 95,74 %
05.07.2022 18:58 21,8 C 21,1 C 17,2 C 62 % 1022,6 hPa 0,0 l/m 0 min 0 min 114 W/m 12,9 km/h (3 Bft) 95,65 %
05.07.2022 18:56 21,8 C 21,1 C 17,2 C 62 % 1022,6 hPa 0,0 l/m 0 min 0 min 112 W/m 12,9 km/h (3 Bft) 95,74 %
05.07.2022 18:54 21,9 C 21,1 C 17,2 C 62 % 1022,6 hPa 0,0 l/m 0 min 0 min 117 W/m 19,3 km/h (3 Bft) 97,87 %
05.07.2022 18:52 21,9 C 21,7 C 17,8 C 61 % 1022,5 hPa 0,0 l/m 0 min 0 min 117 W/m 19,3 km/h (3 Bft) 97,87 %
05.07.2022 18:50 22,1 C 21,7 C 17,8 C 61 % 1022,5 hPa 0,0 l/m 0 min 0 min 116 W/m 12,9 km/h (3 Bft) 97,87 %
05.07.2022 18:48 22,1 C 21,7 C 17,8 C 61 % 1022,5 hPa 0,0 l/m 0 min 0 min 143 W/m 9,7 km/h (2 Bft) 97,87 %
05.07.2022 18:46 22,1 C 21,7 C 17,8 C 61 % 1022,5 hPa 0,0 l/m 0 min 0 min 144 W/m 16,1 km/h (3 Bft) 97,83 %
05.07.2022 18:44 22,2 C 21,7 C 17,8 C 61 % 1022,5 hPa 0,0 l/m 0 min 0 min 143 W/m 6,4 km/h (2 Bft) 97,87 %
05.07.2022 18:42 22,2 C 22,2 C 18,3 C 61 % 1022,5 hPa 0,0 l/m 0 min 0 min 142 W/m 9,7 km/h (2 Bft) 100,00 %
05.07.2022 18:40 22,3 C 22,2 C 17,8 C 60 % 1022,5 hPa 0,0 l/m 0 min 0 min 128 W/m 22,5 km/h (4 Bft) 100,00 %
05.07.2022 18:38 22,4 C 22,2 C 18,3 C 60 % 1022,4 hPa 0,0 l/m 0 min 0 min 116 W/m 22,5 km/h (4 Bft) 97,87 %
05.07.2022 18:36 22,6 C 22,8 C 18,3 C 60 % 1022,5 hPa 0,0 l/m 0 min 0 min 105 W/m 29,0 km/h (5 Bft) 100,00 %
05.07.2022 18:34 22,6 C 23,9 C 18,9 C 60 % 1022,4 hPa 0,0 l/m 0 min 0 min 220 W/m 22,5 km/h (4 Bft) 100,00 %
05.07.2022 18:32 22,7 C 25,0 C 19,4 C 60 % 1022,4 hPa 0,0 l/m 2 min 0 min 405 W/m 32,2 km/h (5 Bft) 100,00 %
05.07.2022 18:30 22,7 C 25,6 C 18,9 C 60 % 1022,4 hPa 0,0 l/m 2 min 0 min 412 W/m 22,5 km/h (4 Bft) 100,00 %
05.07.2022 18:28 22,7 C 25,6 C 18,9 C 60 % 1022,3 hPa 0,0 l/m 2 min 0 min 428 W/m 22,5 km/h (4 Bft) 93,62 %
05.07.2022 18:26 22,8 C 25,0 C 18,9 C 60 % 1022,3 hPa 0,0 l/m 2 min 0 min 459 W/m 16,1 km/h (3 Bft) 100,00 %
05.07.2022 18:24 22,9 C 25,0 C 18,9 C 59 % 1022,2 hPa 0,0 l/m 2 min 0 min 379 W/m 29,0 km/h (5 Bft) 100,00 %
05.07.2022 18:22 23,1 C 23,9 C 18,9 C 59 % 1022,2 hPa 0,0 l/m 0 min 0 min 148 W/m 29,0 km/h (5 Bft) 100,00 %
05.07.2022 18:20 23,1 C 25,0 C 19,4 C 59 % 1022,2 hPa 0,0 l/m 2 min 0 min 336 W/m 25,7 km/h (4 Bft) 100,00 %
05.07.2022 18:18 23,2 C 26,7 C 20,0 C 59 % 1022,2 hPa 0,0 l/m 2 min 0 min 503 W/m 22,5 km/h (4 Bft) 100,00 %
05.07.2022 18:16 23,1 C 27,2 C 20,0 C 60 % 1022,2 hPa 0,0 l/m 2 min 0 min 512 W/m 16,1 km/h (3 Bft) 100,00 %
05.07.2022 18:14 23,1 C 27,2 C 20,0 C 60 % 1022,1 hPa 0,0 l/m 2 min 0 min 543 W/m 22,5 km/h (4 Bft) 100,00 %
05.07.2022 18:12 23,0 C 27,2 C 20,0 C 60 % 1022,1 hPa 0,0 l/m 2 min 0 min 574 W/m 16,1 km/h (3 Bft) 97,87 %
05.07.2022 18:10 22,9 C 26,7 C 20,0 C 60 % 1022,2 hPa 0,0 l/m 2 min 0 min 598 W/m 12,9 km/h (3 Bft) 100,00 %
05.07.2022 18:08 22,9 C 26,1 C 19,4 C 60 % 1022,1 hPa 0,0 l/m 1 min 0 min 627 W/m 9,7 km/h (2 Bft) 100,00 %
05.07.2022 18:07 22,9 C 26,1 C 19,4 C 60 % 1022,1 hPa 0,0 l/m 3 min 0 min 625 W/m 12,9 km/h (3 Bft) 100,00 %
05.07.2022 18:04 22,8 C 26,1 C 19,4 C 61 % 1022,2 hPa 0,0 l/m 2 min 0 min 622 W/m 25,7 km/h (4 Bft) 100,00 %
05.07.2022 18:02 22,7 C 25,6 C 19,4 C 61 % 1022,2 hPa 0,0 l/m 2 min 0 min 466 W/m 19,3 km/h (3 Bft) 100,00 %
05.07.2022 18:00 22,7 C 24,4 C 19,4 C 61 % 1022,1 hPa 0,0 l/m 2 min 0 min 306 W/m 19,3 km/h (3 Bft) 100,00 %
05.07.2022 17:58 22,6 C 25,0 C 19,4 C 62 % 1022,1 hPa 0,0 l/m 2 min 0 min 426 W/m 12,9 km/h (3 Bft) 100,00 %
05.07.2022 17:56 22,5 C 25,0 C 19,4 C 62 % 1022,1 hPa 0,0 l/m 2 min 0 min 445 W/m 16,1 km/h (3 Bft) 100,00 %
05.07.2022 17:54 22,4 C 23,3 C 18,9 C 62 % 1022,1 hPa 0,0 l/m 2 min 0 min 378 W/m 16,1 km/h (3 Bft) 97,87 %
05.07.2022 17:52 22,3 C 22,8 C 18,9 C 61 % 1022,2 hPa 0,0 l/m 2 min 0 min 273 W/m 16,1 km/h (3 Bft) 100,00 %
05.07.2022 17:50 22,3 C 22,8 C 18,9 C 62 % 1022,2 hPa 0,0 l/m 0 min 0 min 256 W/m 6,4 km/h (2 Bft) 97,87 %
05.07.2022 17:48 22,2 C 22,2 C 18,9 C 62 % 1022,1 hPa 0,0 l/m 2 min 0 min 274 W/m 19,3 km/h (3 Bft) 100,00 %
05.07.2022 17:46 22,2 C 22,2 C 18,3 C 61 % 1022,1 hPa 0,0 l/m 0 min 0 min 271 W/m 16,1 km/h (3 Bft) 100,00 %
05.07.2022 17:44 22,2 C 22,2 C 18,3 C 61 % 1022,2 hPa 0,0 l/m 0 min 0 min 247 W/m 9,7 km/h (2 Bft) 100,00 %
05.07.2022 17:42 22,2 C 22,2 C 18,3 C 60 % 1022,2 hPa 0,0 l/m 0 min 0 min 228 W/m 29,0 km/h (5 Bft) 97,87 %
05.07.2022 17:40 22,2 C 22,2 C 18,3 C 60 % 1022,2 hPa 0,0 l/m 0 min 0 min 210 W/m 12,9 km/h (3 Bft) 100,00 %
05.07.2022 17:38 22,3 C 22,2 C 18,3 C 60 % 1022,3 hPa 0,0 l/m 0 min 0 min 192 W/m 16,1 km/h (3 Bft) 95,74 %
05.07.2022 17:36 22,3 C 21,7 C 18,3 C 60 % 1022,3 hPa 0,0 l/m 0 min 0 min 182 W/m 19,3 km/h (3 Bft) 97,87 %
05.07.2022 17:34 22,3 C 22,2 C 18,9 C 60 % 1022,2 hPa 0,0 l/m 0 min 0 min 186 W/m 19,3 km/h (3 Bft) 97,83 %
05.07.2022 17:32 22,4 C 22,2 C 18,9 C 61 % 1022,2 hPa 0,0 l/m 0 min 0 min 188 W/m 12,9 km/h (3 Bft) 97,87 %
05.07.2022 17:30 22,4 C 22,2 C 18,9 C 61 % 1022,2 hPa 0,0 l/m 0 min 0 min 174 W/m 12,9 km/h (3 Bft) 95,74 %
05.07.2022 17:28 22,4 C 22,2 C 18,9 C 60 % 1022,2 hPa 0,0 l/m 0 min 0 min 175 W/m 19,3 km/h (3 Bft) 97,87 %
05.07.2022 17:26 22,5 C 22,2 C 18,9 C 60 % 1022,2 hPa 0,0 l/m 0 min 0 min 182 W/m 19,3 km/h (3 Bft) 97,87 %
05.07.2022 17:24 22,6 C 22,2 C 18,9 C 59 % 1022,2 hPa 0,0 l/m 0 min 0 min 184 W/m 19,3 km/h (3 Bft) 95,65 %
05.07.2022 17:22 22,8 C 22,2 C 18,9 C 59 % 1022,2 hPa 0,0 l/m 0 min 0 min 170 W/m 16,1 km/h (3 Bft) 97,87 %
05.07.2022 17:20 23,0 C 22,2 C 18,9 C 60 % 1022,2 hPa 0,0 l/m 0 min 0 min 156 W/m 25,7 km/h (4 Bft) 97,87 %
05.07.2022 17:18 23,1 C 22,8 C 18,9 C 59 % 1022,2 hPa 0,0 l/m 0 min 0 min 156 W/m 16,1 km/h (3 Bft) 97,87 %
05.07.2022 17:16 23,2 C 22,8 C 19,4 C 59 % 1022,2 hPa 0,0 l/m 0 min 0 min 179 W/m 19,3 km/h (3 Bft) 97,87 %
05.07.2022 17:14 23,2 C 23,3 C 19,4 C 59 % 1022,1 hPa 0,0 l/m 0 min 0 min 237 W/m 22,5 km/h (4 Bft) 91,49 %
05.07.2022 17:12 23,2 C 23,3 C 19,4 C 59 % 1022,2 hPa 0,0 l/m 2 min 0 min 336 W/m 22,5 km/h (4 Bft) 93,62 %
05.07.2022 17:10 23,2 C 23,9 C 19,4 C 58 % 1022,2 hPa 0,0 l/m 2 min 0 min 338 W/m 12,9 km/h (3 Bft) 93,48 %
05.07.2022 17:08 23,2 C 23,3 C 19,4 C 58 % 1022,1 hPa 0,0 l/m 0 min 0 min 221 W/m 9,7 km/h (2 Bft) 93,62 %
05.07.2022 17:06 23,3 C 23,3 C 19,4 C 57 % 1022,1 hPa 0,0 l/m 0 min 0 min 197 W/m 9,7 km/h (2 Bft) 93,62 %
05.07.2022 17:04 23,4 C 23,3 C 20,0 C 58 % 1022,1 hPa 0,0 l/m 0 min 0 min 205 W/m 12,9 km/h (3 Bft) 93,62 %
05.07.2022 17:02 23,5 C 23,9 C 20,0 C 58 % 1022,1 hPa 0,0 l/m 0 min 0 min 243 W/m 12,9 km/h (3 Bft) 93,62 %
05.07.2022 17:00 23,5 C 23,9 C 20,0 C 58 % 1022,1 hPa 0,0 l/m 0 min 0 min 304 W/m 19,3 km/h (3 Bft) 93,62 %
05.07.2022 16:58 23,5 C 24,4 C 20,0 C 57 % 1022,2 hPa 0,0 l/m 2 min 0 min 330 W/m 12,9 km/h (3 Bft) 95,65 %
05.07.2022 16:56 23,6 C 23,9 C 19,4 C 57 % 1022,2 hPa 0,0 l/m 0 min 0 min 308 W/m 12,9 km/h (3 Bft) 93,62 %
05.07.2022 16:54 23,6 C 23,3 C 20,0 C 58 % 1022,2 hPa 0,0 l/m 0 min 0 min 230 W/m 12,9 km/h (3 Bft) 95,74 %
05.07.2022 16:52 23,7 C 23,9 C 19,4 C 57 % 1022,2 hPa 0,0 l/m 0 min 0 min 223 W/m 16,1 km/h (3 Bft) 95,74 %
05.07.2022 16:50 23,8 C 23,9 C 20,0 C 57 % 1022,2 hPa 0,0 l/m 0 min 0 min 228 W/m 12,9 km/h (3 Bft) 93,62 %
05.07.2022 16:48 23,9 C 25,0 C 20,0 C 58 % 1022,2 hPa 0,0 l/m 0 min 0 min 249 W/m 12,9 km/h (3 Bft) 95,74 %
05.07.2022 16:46 23,9 C 25,0 C 20,0 C 58 % 1022,2 hPa 0,0 l/m 0 min 0 min 272 W/m 6,4 km/h (2 Bft) 95,65 %
05.07.2022 16:44 24,0 C 26,1 C 20,0 C 57 % 1022,2 hPa 0,0 l/m 2 min 0 min 344 W/m 12,9 km/h (3 Bft) 93,62 %
05.07.2022 16:42 24,1 C 27,2 C 20,6 C 58 % 1022,2 hPa 0,0 l/m 2 min 0 min 517 W/m 16,1 km/h (3 Bft) 95,74 %
05.07.2022 16:40 24,0 C 27,8 C 20,6 C 57 % 1022,2 hPa 0,0 l/m 2 min 0 min 568 W/m 16,1 km/h (3 Bft) 95,74 %
05.07.2022 16:38 23,9 C 28,3 C 20,6 C 57 % 1022,2 hPa 0,0 l/m 2 min 0 min 723 W/m 16,1 km/h (3 Bft) 97,87 %
05.07.2022 16:36 23,8 C 28,9 C 20,6 C 59 % 1022,2 hPa 0,0 l/m 2 min 0 min 746 W/m 9,7 km/h (2 Bft) 95,74 %
05.07.2022 16:34 23,8 C 28,3 C 20,0 C 58 % 1022,3 hPa 0,0 l/m 2 min 0 min 762 W/m 16,1 km/h (3 Bft) 97,83 %
05.07.2022 16:32 23,8 C 27,8 C 20,0 C 58 % 1022,3 hPa 0,0 l/m 2 min 0 min 754 W/m 19,3 km/h (3 Bft) 97,87 %
05.07.2022 16:30 23,8 C 27,8 C 20,0 C 58 % 1022,2 hPa 0,0 l/m 2 min 0 min 760 W/m 9,7 km/h (2 Bft) 95,74 %
05.07.2022 16:28 23,7 C 28,3 C 20,0 C 59 % 1022,2 hPa 0,0 l/m 2 min 0 min 769 W/m 22,5 km/h (4 Bft) 97,87 %
05.07.2022 16:26 23,6 C 27,2 C 20,0 C 58 % 1022,2 hPa 0,0 l/m 2 min 0 min 769 W/m 19,3 km/h (3 Bft) 97,87 %
05.07.2022 16:24 23,6 C 27,2 C 20,0 C 59 % 1022,2 hPa 0,0 l/m 2 min 0 min 773 W/m 16,1 km/h (3 Bft) 97,87 %
05.07.2022 16:22 23,5 C 27,2 C 20,0 C 59 % 1022,2 hPa 0,0 l/m 2 min 0 min 784 W/m 22,5 km/h (4 Bft) 97,83 %
05.07.2022 16:20 23,4 C 26,7 C 20,0 C 58 % 1022,2 hPa 0,0 l/m 2 min 0 min 800 W/m 35,4 km/h (5 Bft) 95,74 %
05.07.2022 16:18 23,4 C 26,1 C 20,0 C 59 % 1022,2 hPa 0,0 l/m 2 min 0 min 828 W/m 22,5 km/h (4 Bft) 95,74 %
05.07.2022 16:16 23,4 C 25,0 C 19,4 C 58 % 1022,2 hPa 0,0 l/m 2 min 0 min 522 W/m 22,5 km/h (4 Bft) 97,87 %
05.07.2022 16:14 23,6 C 23,9 C 19,4 C 58 % 1022,3 hPa 0,0 l/m 0 min 0 min 274 W/m 29,0 km/h (5 Bft) 100,00 %
05.07.2022 16:12 23,7 C 24,4 C 20,0 C 58 % 1022,3 hPa 0,0 l/m 0 min 0 min 317 W/m 25,7 km/h (4 Bft) 100,00 %
05.07.2022 16:10 23,7 C 25,0 C 20,0 C 57 % 1022,3 hPa 0,0 l/m 0 min 0 min 328 W/m 12,9 km/h (3 Bft) 100,00 %
05.07.2022 16:08 23,7 C 24,4 C 20,0 C 56 % 1022,3 hPa 0,0 l/m 2 min 0 min 512 W/m 25,7 km/h (4 Bft) 97,87 %
05.07.2022 16:06 23,7 C 25,0 C 20,0 C 56 % 1022,2 hPa 0,0 l/m 2 min 0 min 905 W/m 25,7 km/h (4 Bft) 97,87 %
05.07.2022 16:04 23,7 C 25,0 C 20,0 C 57 % 1022,3 hPa 0,0 l/m 2 min 0 min 757 W/m 16,1 km/h (3 Bft) 100,00 %
05.07.2022 16:02 23,7 C 23,9 C 20,0 C 55 % 1022,3 hPa 0,0 l/m 0 min 0 min 195 W/m 22,5 km/h (4 Bft) 100,00 %
05.07.2022 16:00 23,9 C 23,9 C 20,0 C 54 % 1022,2 hPa 0,0 l/m 0 min 0 min 194 W/m 16,1 km/h (3 Bft) 97,87 %
05.07.2022 15:58 24,1 C 23,3 C 20,0 C 53 % 1022,2 hPa 0,0 l/m 0 min 0 min 181 W/m 29,0 km/h (5 Bft) 97,83 %
05.07.2022 15:56 24,3 C 23,9 C 20,0 C 52 % 1022,2 hPa 0,0 l/m 0 min 0 min 194 W/m 12,9 km/h (3 Bft) 100,00 %
05.07.2022 15:54 24,5 C 24,4 C 20,6 C 52 % 1022,3 hPa 0,0 l/m 0 min 0 min 226 W/m 16,1 km/h (3 Bft) 100,00 %
05.07.2022 15:52 24,7 C 25,6 C 20,6 C 52 % 1022,2 hPa 0,0 l/m 0 min 0 min 327 W/m 12,9 km/h (3 Bft) 100,00 %
05.07.2022 15:50 24,8 C 26,1 C 21,1 C 52 % 1022,2 hPa 0,0 l/m 2 min 0 min 813 W/m 19,3 km/h (3 Bft) 100,00 %
05.07.2022 15:48 24,6 C 27,2 C 21,1 C 52 % 1022,1 hPa 0,0 l/m 2 min 0 min 992 W/m 12,9 km/h (3 Bft) 97,87 %
05.07.2022 15:46 24,5 C 27,2 C 21,1 C 53 % 1022,1 hPa 0,0 l/m 2 min 0 min 995 W/m 9,7 km/h (2 Bft) 100,00 %
05.07.2022 15:44 24,3 C 26,7 C 21,1 C 53 % 1022,2 hPa 0,0 l/m 2 min 0 min 999 W/m 12,9 km/h (3 Bft) 100,00 %
05.07.2022 15:42 24,1 C 26,1 C 20,6 C 52 % 1022,2 hPa 0,0 l/m 2 min 0 min 473 W/m 9,7 km/h (2 Bft) 100,00 %
05.07.2022 15:40 24,0 C 25,0 C 20,6 C 52 % 1022,2 hPa 0,0 l/m 2 min 0 min 438 W/m 12,9 km/h (3 Bft) 97,87 %
05.07.2022 15:38 24,0 C 24,4 C 20,6 C 52 % 1022,1 hPa 0,0 l/m 2 min 0 min 399 W/m 12,9 km/h (3 Bft) 100,00 %
05.07.2022 15:36 24,1 C 24,4 C 20,6 C 52 % 1022,2 hPa 0,0 l/m 0 min 0 min 361 W/m 16,1 km/h (3 Bft) 97,87 %
05.07.2022 15:34 24,2 C 25,0 C 20,6 C 52 % 1022,1 hPa 0,0 l/m 0 min 0 min 361 W/m 12,9 km/h (3 Bft) 100,00 %
05.07.2022 15:32 24,2 C 25,6 C 20,6 C 52 % 1022,1 hPa 0,0 l/m 2 min 0 min 490 W/m 19,3 km/h (3 Bft) 100,00 %
05.07.2022 15:30 24,2 C 25,6 C 20,6 C 52 % 1022,1 hPa 0,0 l/m 2 min 0 min 489 W/m 16,1 km/h (3 Bft) 97,87 %
05.07.2022 15:28 24,2 C 25,6 C 20,6 C 52 % 1022,1 hPa 0,0 l/m 2 min 0 min 432 W/m 22,5 km/h (4 Bft) 100,00 %
05.07.2022 15:26 24,2 C 25,6 C 20,6 C 53 % 1022,1 hPa 0,0 l/m 2 min 0 min 432 W/m 22,5 km/h (4 Bft) 97,87 %
05.07.2022 15:24 24,2 C 25,0 C 20,6 C 53 % 1022,1 hPa 0,0 l/m 2 min 0 min 441 W/m 16,1 km/h (3 Bft) 97,83 %
05.07.2022 15:22 24,2 C 24,4 C 20,6 C 52 % 1022,0 hPa 0,0 l/m 2 min 0 min 407 W/m 16,1 km/h (3 Bft) 100,00 %
05.07.2022 15:20 24,2 C 25,0 C 20,6 C 51 % 1022,1 hPa 0,0 l/m 0 min 0 min 388 W/m 9,7 km/h (2 Bft) 97,87 %
05.07.2022 15:18 24,3 C 24,4 C 20,6 C 51 % 1022,1 hPa 0,0 l/m 0 min 0 min 299 W/m 3,2 km/h (1 Bft) 95,74 %
05.07.2022 15:16 24,4 C 25,0 C 20,6 C 51 % 1022,1 hPa 0,0 l/m 0 min 0 min 295 W/m 9,7 km/h (2 Bft) 97,87 %
05.07.2022 15:14 24,5 C 25,6 C 20,6 C 53 % 1022,1 hPa 0,0 l/m 0 min 0 min 345 W/m 6,4 km/h (2 Bft) 97,87 %
05.07.2022 15:12 24,6 C 25,6 C 20,6 C 52 % 1022,0 hPa 0,0 l/m 2 min 0 min 401 W/m 6,4 km/h (2 Bft) 97,83 %
05.07.2022 15:10 24,6 C 26,7 C 20,6 C 51 % 1022,0 hPa 0,0 l/m 2 min 0 min 662 W/m 6,4 km/h (2 Bft) 93,62 %
05.07.2022 15:08 24,7 C 27,8 C 21,1 C 53 % 1022,1 hPa 0,0 l/m 2 min 0 min 1008 W/m 9,7 km/h (2 Bft) 97,87 %
05.07.2022 15:06 24,5 C 27,2 C 21,1 C 53 % 1022,1 hPa 0,0 l/m 2 min 0 min 1079 W/m 19,3 km/h (3 Bft) 95,74 %
05.07.2022 15:04 24,4 C 27,2 C 21,1 C 53 % 1022,1 hPa 0,0 l/m 2 min 0 min 1090 W/m 9,7 km/h (2 Bft) 93,62 %
05.07.2022 15:02 24,3 C 26,1 C 20,6 C 53 % 1022,1 hPa 0,0 l/m 0 min 0 min 383 W/m 12,9 km/h (3 Bft) 95,74 %
05.07.2022 15:00 24,4 C 25,6 C 20,6 C 52 % 1022,2 hPa 0,0 l/m 2 min 0 min 437 W/m 9,7 km/h (2 Bft) 95,65 %
05.07.2022 14:58 24,5 C 26,1 C 20,6 C 52 % 1022,1 hPa 0,0 l/m 2 min 0 min 1039 W/m 16,1 km/h (3 Bft) 95,74 %
05.07.2022 14:56 24,6 C 27,2 C 20,6 C 52 % 1022,1 hPa 0,0 l/m 2 min 0 min 840 W/m 16,1 km/h (3 Bft) 95,74 %
05.07.2022 14:54 24,4 C 26,7 C 20,6 C 51 % 1022,1 hPa 0,0 l/m 2 min 0 min 691 W/m 9,7 km/h (2 Bft) 93,62 %
05.07.2022 14:52 24,4 C 26,7 C 20,6 C 52 % 1022,1 hPa 0,0 l/m 2 min 0 min 1063 W/m 16,1 km/h (3 Bft) 95,74 %
05.07.2022 14:50 24,6 C 27,8 C 21,1 C 53 % 1022,2 hPa 0,0 l/m 2 min 0 min 1071 W/m 12,9 km/h (3 Bft) 95,74 %
05.07.2022 14:48 24,6 C 27,2 C 21,1 C 52 % 1022,2 hPa 0,0 l/m 2 min 0 min 1039 W/m 6,4 km/h (2 Bft) 93,62 %
05.07.2022 14:46 24,4 C 27,2 C 20,6 C 53 % 1022,2 hPa 0,0 l/m 2 min 0 min 970 W/m 16,1 km/h (3 Bft) 95,65 %
05.07.2022 14:44 24,3 C 26,7 C 20,6 C 54 % 1022,1 hPa 0,0 l/m 2 min 0 min 986 W/m 6,4 km/h (2 Bft) 95,74 %
05.07.2022 14:42 24,3 C 26,7 C 20,6 C 53 % 1022,2 hPa 0,0 l/m 2 min 0 min 897 W/m 16,1 km/h (3 Bft) 95,74 %
05.07.2022 14:40 24,2 C 26,7 C 20,6 C 54 % 1022,2 hPa 0,0 l/m 2 min 0 min 963 W/m 9,7 km/h (2 Bft) 95,74 %
05.07.2022 14:38 24,2 C 26,7 C 20,6 C 53 % 1022,2 hPa 0,0 l/m 2 min 0 min 997 W/m 19,3 km/h (3 Bft) 93,62 %
05.07.2022 14:36 24,1 C 26,7 C 20,6 C 53 % 1022,1 hPa 0,0 l/m 2 min 0 min 1041 W/m 12,9 km/h (3 Bft) 97,83 %
05.07.2022 14:34 24,0 C 27,2 C 20,6 C 53 % 1022,3 hPa 0,0 l/m 2 min 0 min 1017 W/m 12,9 km/h (3 Bft) 95,74 %
05.07.2022 14:32 23,8 C 26,7 C 20,6 C 53 % 1022,2 hPa 0,0 l/m 2 min 0 min 1016 W/m 19,3 km/h (3 Bft) 95,74 %
05.07.2022 14:30 23,7 C 26,1 C 20,6 C 54 % 1022,2 hPa 0,0 l/m 2 min 0 min 1018 W/m 19,3 km/h (3 Bft) 97,87 %
05.07.2022 14:28 23,7 C 25,0 C 20,6 C 53 % 1022,3 hPa 0,0 l/m 2 min 0 min 759 W/m 12,9 km/h (3 Bft) 97,87 %
05.07.2022 14:26 23,8 C 23,9 C 20,6 C 53 % 1022,4 hPa 0,0 l/m 0 min 0 min 275 W/m 19,3 km/h (3 Bft) 97,87 %
05.07.2022 14:24 23,9 C 24,4 C 20,6 C 54 % 1022,3 hPa 0,0 l/m 0 min 0 min 256 W/m 16,1 km/h (3 Bft) 97,83 %
05.07.2022 14:22 24,0 C 25,0 C 20,6 C 52 % 1022,3 hPa 0,0 l/m 2 min 0 min 515 W/m 3,2 km/h (1 Bft) 100,00 %
05.07.2022 14:20 24,1 C 25,6 C 21,1 C 52 % 1022,4 hPa 0,0 l/m 2 min 0 min 846 W/m 12,9 km/h (3 Bft) 100,00 %
05.07.2022 14:18 24,1 C 25,6 C 21,1 C 52 % 1022,4 hPa 0,0 l/m 2 min 0 min 1041 W/m 12,9 km/h (3 Bft) 100,00 %
05.07.2022 14:16 24,1 C 26,1 C 21,1 C 52 % 1022,4 hPa 0,0 l/m 2 min 0 min 1034 W/m 9,7 km/h (2 Bft) 100,00 %
05.07.2022 14:14 24,1 C 26,7 C 21,1 C 52 % 1022,4 hPa 0,0 l/m 2 min 0 min 991 W/m 16,1 km/h (3 Bft) 100,00 %
05.07.2022 14:12 24,1 C 26,1 C 21,1 C 52 % 1022,4 hPa 0,0 l/m 2 min 0 min 936 W/m 16,1 km/h (3 Bft) 100,00 %
05.07.2022 14:10 24,1 C 25,6 C 21,7 C 52 % 1022,5 hPa 0,0 l/m 2 min 0 min 784 W/m 16,1 km/h (3 Bft) 100,00 %
05.07.2022 14:08 24,1 C 26,1 C 22,2 C 53 % 1022,5 hPa 0,0 l/m 2 min 0 min 892 W/m 19,3 km/h (3 Bft) 100,00 %
05.07.2022 14:06 24,1 C 26,1 C 23,3 C 53 % 1022,5 hPa 0,0 l/m 2 min 0 min 650 W/m 12,9 km/h (3 Bft) 100,00 %
05.07.2022 14:04 24,1 C 25,6 C 23,3 C 52 % 1022,4 hPa 0,0 l/m 2 min 0 min 527 W/m 6,4 km/h (2 Bft) 100,00 %
05.07.2022 14:02 24,2 C 25,6 C 24,4 C 51 % 1022,5 hPa 0,0 l/m 2 min 0 min 582 W/m 16,1 km/h (3 Bft) 100,00 %
05.07.2022 14:00 24,2 C 26,7 C 25,6 C 52 % 1022,5 hPa 0,0 l/m 2 min 0 min 974 W/m 6,4 km/h (2 Bft) 97,83 %
05.07.2022 13:58 24,2 C 26,7 C 26,1 C 52 % 1022,5 hPa 0,0 l/m 2 min 0 min 1027 W/m 16,1 km/h (3 Bft) 97,87 %
05.07.2022 13:56 24,1 C 26,7 C 27,8 C 52 % 1022,5 hPa 0,0 l/m 2 min 0 min 1070 W/m 16,1 km/h (3 Bft) 97,87 %
05.07.2022 13:54 24,1 C 26,7 C 28,9 C 53 % 1022,5 hPa 0,0 l/m 2 min 0 min 1072 W/m 9,7 km/h (2 Bft) 97,87 %
05.07.2022 13:52 24,0 C 26,7 C 28,9 C 52 % 1022,5 hPa 0,0 l/m 2 min 0 min 1049 W/m 12,9 km/h (3 Bft) 95,74 %
05.07.2022 13:50 23,9 C 26,1 C 28,9 C 54 % 1022,5 hPa 0,0 l/m 2 min 0 min 1029 W/m 12,9 km/h (3 Bft) 97,87 %
05.07.2022 13:48 23,7 C 26,1 C 28,3 C 55 % 1022,5 hPa 0,0 l/m 2 min 0 min 1019 W/m 6,4 km/h (2 Bft) 97,83 %
05.07.2022 13:46 23,6 C 26,1 C 28,3 C 55 % 1022,5 hPa 0,0 l/m 2 min 0 min 1009 W/m 6,4 km/h (2 Bft) 95,74 %
05.07.2022 13:44 23,5 C 26,1 C 27,2 C 55 % 1022,6 hPa 0,0 l/m 2 min 0 min 975 W/m 12,9 km/h (3 Bft) 95,74 %
05.07.2022 13:42 23,3 C 25,6 C 26,1 C 55 % 1022,6 hPa 0,0 l/m 2 min 0 min 976 W/m 9,7 km/h (2 Bft) 97,87 %
05.07.2022 13:40 23,2 C 25,0 C 25,0 C 54 % 1022,6 hPa 0,0 l/m 2 min 0 min 989 W/m 12,9 km/h (3 Bft) 97,87 %
05.07.2022 13:38 23,1 C 25,0 C 23,9 C 56 % 1022,6 hPa 0,0 l/m 2 min 0 min 948 W/m 12,9 km/h (3 Bft) 97,87 %
05.07.2022 13:36 23,0 C 25,0 C 22,8 C 56 % 1022,6 hPa 0,0 l/m 2 min 0 min 620 W/m 16,1 km/h (3 Bft) 97,83 %
05.07.2022 13:34 22,8 C 24,4 C 22,8 C 56 % 1022,7 hPa 0,0 l/m 2 min 0 min 1008 W/m 9,7 km/h (2 Bft) 97,87 %
05.07.2022 13:32 22,7 C 23,3 C 21,1 C 56 % 1022,6 hPa 0,0 l/m 2 min 0 min 1052 W/m 16,1 km/h (3 Bft) 95,74 %
05.07.2022 13:30 22,7 C 22,8 C 20,0 C 55 % 1022,7 hPa 0,0 l/m 2 min 0 min 461 W/m 22,5 km/h (4 Bft) 97,87 %
05.07.2022 13:28 22,7 C 22,8 C 19,4 C 56 % 1022,7 hPa 0,0 l/m 0 min 0 min 260 W/m 16,1 km/h (3 Bft) 97,87 %
05.07.2022 13:26 22,9 C 22,8 C 20,0 C 56 % 1022,7 hPa 0,0 l/m 0 min 0 min 257 W/m 25,7 km/h (4 Bft) 97,87 %
05.07.2022 13:24 22,9 C 23,3 C 20,0 C 54 % 1022,8 hPa 0,0 l/m 0 min 0 min 271 W/m 19,3 km/h (3 Bft) 97,83 %
05.07.2022 13:22 23,1 C 23,9 C 21,1 C 55 % 1022,8 hPa 0,0 l/m 2 min 0 min 1104 W/m 9,7 km/h (2 Bft) 97,87 %
05.07.2022 13:20 23,1 C 23,9 C 21,1 C 55 % 1022,7 hPa 0,0 l/m 2 min 0 min 676 W/m 12,9 km/h (3 Bft) 97,87 %
05.07.2022 13:18 23,2 C 24,4 C 20,6 C 55 % 1022,7 hPa 0,0 l/m 2 min 0 min 592 W/m 16,1 km/h (3 Bft) 95,74 %
05.07.2022 13:16 23,1 C 25,0 C 21,7 C 55 % 1022,7 hPa 0,0 l/m 2 min 0 min 1092 W/m 16,1 km/h (3 Bft) 97,87 %
05.07.2022 13:14 22,9 C 25,6 C 21,7 C 56 % 1022,7 hPa 0,0 l/m 2 min 0 min 1082 W/m 16,1 km/h (3 Bft) 97,87 %
05.07.2022 13:12 22,7 C 25,0 C 21,7 C 56 % 1022,7 hPa 0,0 l/m 2 min 0 min 1056 W/m 9,7 km/h (2 Bft) 95,65 %
05.07.2022 13:10 22,4 C 24,4 C 21,7 C 57 % 1022,8 hPa 0,0 l/m 2 min 0 min 1031 W/m 6,4 km/h (2 Bft) 93,62 %
05.07.2022 13:08 22,3 C 23,3 C 21,7 C 56 % 1022,8 hPa 0,0 l/m 2 min 0 min 949 W/m 6,4 km/h (2 Bft) 95,74 %
05.07.2022 13:06 22,3 C 23,3 C 21,7 C 56 % 1022,8 hPa 0,0 l/m 2 min 0 min 949 W/m 12,9 km/h (3 Bft) 95,74 %
05.07.2022 13:04 22,2 C 22,8 C 21,1 C 57 % 1022,8 hPa 0,0 l/m 2 min 0 min 949 W/m 16,1 km/h (3 Bft) 93,62 %
05.07.2022 13:02 22,1 C 22,8 C 21,1 C 57 % 1022,8 hPa 0,0 l/m 2 min 0 min 818 W/m 9,7 km/h (2 Bft) 93,62 %
05.07.2022 13:00 21,9 C 22,2 C 20,0 C 57 % 1022,8 hPa 0,0 l/m 0 min 0 min 320 W/m 12,9 km/h (3 Bft) 95,65 %
05.07.2022 12:58 22,0 C 22,2 C 20,0 C 57 % 1022,8 hPa 0,0 l/m 0 min 0 min 320 W/m 6,4 km/h (2 Bft) 97,87 %
05.07.2022 12:56 21,9 C 22,2 C 20,0 C 57 % 1022,9 hPa 0,0 l/m 0 min 0 min 291 W/m 9,7 km/h (2 Bft) 97,87 %
05.07.2022 12:54 22,0 C 22,2 C 20,0 C 57 % 1022,8 hPa 0,0 l/m 0 min 0 min 292 W/m 9,7 km/h (2 Bft) 95,74 %
05.07.2022 12:52 22,0 C 22,2 C 20,0 C 56 % 1022,9 hPa 0,0 l/m 0 min 0 min 327 W/m 12,9 km/h (3 Bft) 95,74 %
05.07.2022 12:50 22,0 C 22,2 C 20,0 C 57 % 1022,8 hPa 0,0 l/m 0 min 0 min 373 W/m 12,9 km/h (3 Bft) 97,87 %
05.07.2022 12:48 22,0 C 22,2 C 19,4 C 57 % 1022,8 hPa 0,0 l/m 0 min 0 min 329 W/m 19,3 km/h (3 Bft) 97,83 %
05.07.2022 12:46 22,1 C 21,7 C 19,4 C 57 % 1022,9 hPa 0,0 l/m 0 min 0 min 293 W/m 12,9 km/h (3 Bft) 91,49 %
05.07.2022 12:44 22,2 C 22,2 C 19,4 C 56 % 1022,8 hPa 0,0 l/m 0 min 0 min 270 W/m 19,3 km/h (3 Bft) 95,74 %
05.07.2022 12:42 22,4 C 22,2 C 20,6 C 58 % 1022,9 hPa 0,0 l/m 0 min 0 min 266 W/m 16,1 km/h (3 Bft) 95,74 %
05.07.2022 12:40 22,6 C 22,8 C 20,6 C 58 % 1022,9 hPa 0,0 l/m 0 min 0 min 250 W/m 12,9 km/h (3 Bft) 97,87 %
05.07.2022 12:38 22,6 C 22,8 C 21,7 C 57 % 1022,9 hPa 0,0 l/m 2 min 0 min 436 W/m 16,1 km/h (3 Bft) 100,00 %
05.07.2022 12:36 22,6 C 23,3 C 22,8 C 57 % 1022,9 hPa 0,0 l/m 2 min 0 min 1092 W/m 22,5 km/h (4 Bft) 95,65 %
05.07.2022 12:34 22,7 C 24,4 C 25,6 C 57 % 1022,8 hPa 0,0 l/m 2 min 0 min 1092 W/m 16,1 km/h (3 Bft) 93,62 %
05.07.2022 12:32 22,6 C 25,0 C 26,7 C 58 % 1022,8 hPa 0,0 l/m 2 min 0 min 1059 W/m 12,9 km/h (3 Bft) 97,87 %
05.07.2022 12:30 22,5 C 25,0 C 26,1 C 57 % 1022,8 hPa 0,0 l/m 2 min 0 min 1054 W/m 19,3 km/h (3 Bft) 95,74 %
05.07.2022 12:28 22,4 C 25,0 C 25,6 C 58 % 1022,8 hPa 0,0 l/m 2 min 0 min 1006 W/m 22,5 km/h (4 Bft) 95,74 %
05.07.2022 12:26 22,3 C 25,0 C 25,0 C 59 % 1022,8 hPa 0,0 l/m 2 min 0 min 984 W/m 16,1 km/h (3 Bft) 95,74 %
05.07.2022 12:24 22,1 C 24,4 C 24,4 C 59 % 1022,8 hPa 0,0 l/m 2 min 0 min 967 W/m 9,7 km/h (2 Bft) 97,83 %
05.07.2022 12:22 22,0 C 23,3 C 22,2 C 59 % 1022,9 hPa 0,0 l/m 2 min 0 min 548 W/m 9,7 km/h (2 Bft) 97,87 %
05.07.2022 12:20 22,0 C 22,2 C 20,6 C 58 % 1022,8 hPa 0,0 l/m 0 min 0 min 230 W/m 12,9 km/h (3 Bft) 97,87 %
05.07.2022 12:18 22,1 C 22,2 C 20,6 C 59 % 1022,9 hPa 0,0 l/m 0 min 0 min 313 W/m 12,9 km/h (3 Bft) 95,74 %
05.07.2022 12:16 22,1 C 22,2 C 18,9 C 58 % 1022,9 hPa 0,0 l/m 0 min 0 min 234 W/m 12,9 km/h (3 Bft) 97,87 %
05.07.2022 12:14 22,3 C 22,2 C 18,9 C 58 % 1022,9 hPa 0,0 l/m 0 min 0 min 235 W/m 12,9 km/h (3 Bft) 97,83 %
05.07.2022 12:12 22,4 C 22,2 C 19,4 C 57 % 1022,8 hPa 0,0 l/m 0 min 0 min 248 W/m 9,7 km/h (2 Bft) 97,87 %
05.07.2022 12:10 22,4 C 22,8 C 19,4 C 57 % 1022,8 hPa 0,0 l/m 0 min 0 min 250 W/m 12,9 km/h (3 Bft) 97,87 %
05.07.2022 12:08 22,5 C 23,3 C 20,0 C 58 % 1022,8 hPa 0,0 l/m 0 min 0 min 253 W/m 9,7 km/h (2 Bft) 95,83 %
05.07.2022 12:07 22,5 C 23,3 C 20,0 C 57 % 1022,8 hPa 0,0 l/m 0 min 0 min 389 W/m 9,7 km/h (2 Bft) 98,63 %
05.07.2022 12:04 22,6 C 23,3 C 20,6 C 58 % 1022,8 hPa 0,0 l/m 0 min 0 min 342 W/m 6,4 km/h (2 Bft) 97,87 %
05.07.2022 12:02 22,6 C 23,9 C 20,6 C 56 % 1022,8 hPa 0,0 l/m 0 min 0 min 350 W/m 6,4 km/h (2 Bft) 95,65 %
05.07.2022 12:00 22,7 C 23,9 C 21,1 C 56 % 1022,9 hPa 0,0 l/m 2 min 0 min 426 W/m 6,4 km/h (2 Bft) 97,87 %
05.07.2022 11:58 22,7 C 24,4 C 21,1 C 56 % 1022,8 hPa 0,0 l/m 2 min 0 min 813 W/m 9,7 km/h (2 Bft) 97,87 %
05.07.2022 11:56 22,7 C 25,0 C 21,7 C 57 % 1022,8 hPa 0,0 l/m 2 min 0 min 1044 W/m 12,9 km/h (3 Bft) 97,87 %
05.07.2022 11:54 22,6 C 25,6 C 22,2 C 57 % 1022,8 hPa 0,0 l/m 2 min 0 min 947 W/m 6,4 km/h (2 Bft) 97,87 %
05.07.2022 11:52 22,5 C 25,6 C 23,3 C 58 % 1022,9 hPa 0,0 l/m 2 min 0 min 941 W/m 12,9 km/h (3 Bft) 97,87 %
05.07.2022 11:50 22,5 C 25,6 C 23,3 C 59 % 1022,9 hPa 0,0 l/m 2 min 0 min 908 W/m 16,1 km/h (3 Bft) 100,00 %
05.07.2022 11:48 22,4 C 26,1 C 23,3 C 58 % 1022,9 hPa 0,0 l/m 2 min 0 min 883 W/m 16,1 km/h (3 Bft) 100,00 %
05.07.2022 11:46 22,4 C 26,1 C 23,9 C 60 % 1022,9 hPa 0,0 l/m 2 min 0 min 881 W/m 12,9 km/h (3 Bft) 100,00 %
05.07.2022 11:44 22,3 C 26,1 C 22,8 C 61 % 1022,9 hPa 0,0 l/m 2 min 0 min 876 W/m 6,4 km/h (2 Bft) 100,00 %
05.07.2022 11:42 22,1 C 25,6 C 22,8 C 60 % 1022,9 hPa 0,0 l/m 2 min 0 min 888 W/m 12,9 km/h (3 Bft) 100,00 %
05.07.2022 11:40 21,9 C 25,6 C 22,8 C 60 % 1022,9 hPa 0,0 l/m 2 min 0 min 910 W/m 9,7 km/h (2 Bft) 100,00 %
05.07.2022 11:38 21,8 C 25,0 C 22,8 C 61 % 1022,9 hPa 0,0 l/m 2 min 0 min 892 W/m 9,7 km/h (2 Bft) 100,00 %
05.07.2022 11:36 21,7 C 24,4 C 22,8 C 60 % 1022,8 hPa 0,0 l/m 2 min 0 min 866 W/m 6,4 km/h (2 Bft) 97,87 %
05.07.2022 11:34 21,6 C 23,9 C 21,7 C 60 % 1022,9 hPa 0,0 l/m 2 min 0 min 853 W/m 6,4 km/h (2 Bft) 100,00 %
05.07.2022 11:32 21,6 C 23,3 C 20,6 C 60 % 1022,9 hPa 0,0 l/m 2 min 0 min 758 W/m 6,4 km/h (2 Bft) 97,87 %
05.07.2022 11:30 21,6 C 22,8 C 19,4 C 61 % 1022,9 hPa 0,0 l/m 2 min 0 min 563 W/m 9,7 km/h (2 Bft) 100,00 %
05.07.2022 11:28 21,6 C 22,8 C 18,9 C 61 % 1022,9 hPa 0,0 l/m 0 min 0 min 257 W/m 6,4 km/h (2 Bft) 100,00 %
05.07.2022 11:26 21,6 C 22,8 C 18,9 C 60 % 1022,9 hPa 0,0 l/m 0 min 0 min 257 W/m 12,9 km/h (3 Bft) 97,83 %
05.07.2022 11:24 21,7 C 22,2 C 18,9 C 59 % 1022,9 hPa 0,0 l/m 0 min 0 min 251 W/m 6,4 km/h (2 Bft) 100,00 %
05.07.2022 11:22 21,7 C 22,8 C 18,9 C 60 % 1022,9 hPa 0,0 l/m 0 min 0 min 242 W/m 9,7 km/h (2 Bft) 100,00 %
05.07.2022 11:20 21,8 C 23,3 C 19,4 C 60 % 1022,9 hPa 0,0 l/m 0 min 0 min 229 W/m 6,4 km/h (2 Bft) 97,87 %
05.07.2022 11:18 21,8 C 23,9 C 19,4 C 61 % 1022,9 hPa 0,0 l/m 2 min 0 min 643 W/m 6,4 km/h (2 Bft) 100,00 %
05.07.2022 11:16 21,7 C 25,0 C 19,4 C 60 % 1022,9 hPa 0,0 l/m 2 min 0 min 992 W/m 9,7 km/h (2 Bft) 100,00 %
05.07.2022 11:14 21,6 C 24,4 C 19,4 C 61 % 1022,9 hPa 0,0 l/m 2 min 0 min 1008 W/m 6,4 km/h (2 Bft) 100,00 %
05.07.2022 11:12 21,5 C 23,3 C 18,9 C 61 % 1022,8 hPa 0,0 l/m 2 min 0 min 536 W/m 9,7 km/h (2 Bft) 100,00 %
05.07.2022 11:10 21,4 C 22,8 C 18,9 C 61 % 1022,8 hPa 0,0 l/m 2 min 0 min 611 W/m 6,4 km/h (2 Bft) 97,87 %
05.07.2022 11:08 21,3 C 22,8 C 18,9 C 61 % 1022,8 hPa 0,0 l/m 2 min 0 min 710 W/m 9,7 km/h (2 Bft) 97,87 %
05.07.2022 11:06 21,3 C 22,2 C 18,9 C 62 % 1022,8 hPa 0,0 l/m 0 min 0 min 360 W/m 6,4 km/h (2 Bft) 95,74 %
05.07.2022 11:04 21,3 C 22,2 C 18,9 C 62 % 1022,9 hPa 0,0 l/m 2 min 0 min 364 W/m 9,7 km/h (2 Bft) 97,96 %
05.07.2022 11:02 21,3 C 21,7 C 18,9 C 61 % 1022,9 hPa 0,0 l/m 0 min 0 min 323 W/m 3,2 km/h (1 Bft) 97,22 %
05.07.2022 11:00 21,4 C 22,2 C 19,4 C 62 % 1022,9 hPa 0,0 l/m 0 min 0 min 341 W/m 6,4 km/h (2 Bft) 97,87 %
05.07.2022 10:58 21,4 C 21,7 C 18,9 C 62 % 1022,8 hPa 0,0 l/m 0 min 0 min 304 W/m 9,7 km/h (2 Bft) 97,83 %
05.07.2022 10:56 21,4 C 22,2 C 19,4 C 63 % 1022,8 hPa 0,0 l/m 0 min 0 min 276 W/m 12,9 km/h (3 Bft) 97,87 %
05.07.2022 10:54 21,5 C 22,2 C 20,0 C 62 % 1022,8 hPa 0,0 l/m 0 min 0 min 259 W/m 9,7 km/h (2 Bft) 89,36 %
05.07.2022 10:52 21,6 C 22,8 C 20,6 C 62 % 1022,8 hPa 0,0 l/m 0 min 0 min 282 W/m 12,9 km/h (3 Bft) 97,87 %
05.07.2022 10:50 21,5 C 22,8 C 21,1 C 62 % 1022,8 hPa 0,0 l/m 2 min 0 min 381 W/m 12,9 km/h (3 Bft) 95,74 %
05.07.2022 10:48 21,4 C 23,3 C 21,7 C 63 % 1022,7 hPa 0,0 l/m 2 min 0 min 479 W/m 12,9 km/h (3 Bft) 97,83 %
05.07.2022 10:46 21,3 C 23,9 C 22,2 C 63 % 1022,7 hPa 0,0 l/m 2 min 0 min 669 W/m 3,2 km/h (1 Bft) 97,87 %
05.07.2022 10:44 21,2 C 23,3 C 22,2 C 62 % 1022,8 hPa 0,0 l/m 2 min 0 min 963 W/m 6,4 km/h (2 Bft) 97,87 %
05.07.2022 10:42 21,3 C 23,9 C 22,8 C 62 % 1022,9 hPa 0,0 l/m 2 min 0 min 957 W/m 9,7 km/h (2 Bft) 95,74 %
05.07.2022 10:40 21,2 C 23,3 C 22,2 C 64 % 1022,9 hPa 0,0 l/m 2 min 0 min 892 W/m 9,7 km/h (2 Bft) 97,87 %
05.07.2022 10:38 21,1 C 22,8 C 21,1 C 63 % 1022,8 hPa 0,0 l/m 2 min 0 min 856 W/m 6,4 km/h (2 Bft) 97,87 %
05.07.2022 10:36 21,1 C 22,8 C 21,1 C 63 % 1022,9 hPa 0,0 l/m 2 min 0 min 503 W/m 6,4 km/h (2 Bft) 100,00 %
05.07.2022 10:34 20,9 C 22,8 C 20,6 C 62 % 1022,8 hPa 0,0 l/m 2 min 0 min 559 W/m 3,2 km/h (1 Bft) 100,00 %
05.07.2022 10:32 20,9 C 22,2 C 20,6 C 63 % 1022,9 hPa 0,0 l/m 2 min 0 min 801 W/m 9,7 km/h (2 Bft) 100,00 %
05.07.2022 10:30 20,8 C 21,7 C 19,4 C 63 % 1022,8 hPa 0,0 l/m 2 min 0 min 389 W/m 3,2 km/h (1 Bft) 100,00 %
05.07.2022 10:28 20,9 C 21,7 C 18,9 C 62 % 1022,9 hPa 0,0 l/m 0 min 0 min 192 W/m 6,4 km/h (2 Bft) 95,74 %
05.07.2022 10:26 20,9 C 21,7 C 18,3 C 62 % 1022,9 hPa 0,0 l/m 0 min 0 min 167 W/m 9,7 km/h (2 Bft) 97,87 %
05.07.2022 10:24 21,1 C 22,2 C 18,9 C 62 % 1022,9 hPa 0,0 l/m 0 min 0 min 151 W/m 6,4 km/h (2 Bft) 100,00 %
05.07.2022 10:22 21,1 C 22,8 C 19,4 C 63 % 1022,9 hPa 0,0 l/m 0 min 0 min 144 W/m 6,4 km/h (2 Bft) 97,87 %
05.07.2022 10:20 21,1 C 23,9 C 19,4 C 63 % 1022,9 hPa 0,0 l/m 2 min 0 min 447 W/m 3,2 km/h (1 Bft) 97,87 %
05.07.2022 10:18 21,1 C 24,4 C 20,0 C 63 % 1022,8 hPa 0,0 l/m 2 min 0 min 750 W/m 9,7 km/h (2 Bft) 100,00 %
05.07.2022 10:16 21,1 C 24,4 C 20,6 C 62 % 1022,8 hPa 0,0 l/m 2 min 0 min 874 W/m 6,4 km/h (2 Bft) 100,00 %
05.07.2022 10:14 21,0 C 24,4 C 20,6 C 63 % 1022,9 hPa 0,0 l/m 2 min 0 min 464 W/m 9,7 km/h (2 Bft) 97,87 %
05.07.2022 10:12 20,9 C 23,9 C 20,6 C 63 % 1022,9 hPa 0,0 l/m 2 min 0 min 456 W/m 6,4 km/h (2 Bft) 97,83 %
05.07.2022 10:10 20,8 C 23,3 C 20,0 C 63 % 1022,8 hPa 0,0 l/m 2 min 0 min 453 W/m 6,4 km/h (2 Bft) 100,00 %
05.07.2022 10:08 20,8 C 23,3 C 19,4 C 64 % 1022,8 hPa 0,0 l/m 2 min 0 min 391 W/m 12,9 km/h (3 Bft) 97,87 %
05.07.2022 10:06 20,8 C 22,8 C 19,4 C 64 % 1022,8 hPa 0,0 l/m 2 min 0 min 671 W/m 12,9 km/h (3 Bft) 95,74 %
05.07.2022 10:04 20,7 C 22,8 C 18,9 C 62 % 1022,8 hPa 0,0 l/m 2 min 0 min 621 W/m 6,4 km/h (2 Bft) 92,45 %
05.07.2022 10:02 20,8 C 22,8 C 19,4 C 63 % 1022,8 hPa 0,0 l/m 2 min 0 min 330 W/m 9,7 km/h (2 Bft) 95,65 %
05.07.2022 10:00 20,8 C 23,3 C 19,4 C 62 % 1022,8 hPa 0,0 l/m 2 min 0 min 447 W/m 12,9 km/h (3 Bft) 93,62 %
_ Min-Zeit 05:22 04:08 04:20 14:02 15:10 - - - - 00:00 19:22
Minimum _ 11,4 C 10,6 C 7,8 C 51 % 1022,0 hPa - - - - 0,0 km/h (0 Bft) 50,00 %
_ Max-Zeit 15:50 16:36 13:50 05:30 09:34 10:00 18:07 10:00 13:22 16:20 10:10
Maximum _ 24,8 C 28,9 C 28,9 C 88 % 1026,5 hPa 0,0 l/m 3 min 0 min 1104 W/m 35,4 km/h
N-NW (5 Bft)
100,00 %
Durchschnitt _ 18,3 C 18,6 C 15,1 C 69 % 1024,0 hPa #0,0 l/m #56 min. #0 min. 144 W/m 10,8 km/h (2 Bft) 97,09 %
© 2022 W. Hausmann